GFSWCAN_250_spd_003.txt.gz
Wind_Speed
98 97 97 95 94 89 81 78 78 78 74 65 58 50 37 25 17 11 8 10 13 17 23 30 37 42 47 53 56 55 54 50 45 39 38 30 28 29 31 30 18 23 19 14 12 6 5 4 8 13 14 18 19 19
94 93 95 93 92 86 78 74 75 74 70 63 57 47 35 25 17 13 11 11 11 15 22 27 35 40 43 48 53 55 51 46 42 39 38 28 30 34 30 32 29 28 23 21 17 14 15 14 14 13 13 15 16 18
92 91 93 90 89 83 75 71 73 71 67 58 54 47 35 25 17 15 16 14 15 13 21 29 37 40 44 48 49 47 47 44 41 38 33 26 28 31 31 30 37 32 24 30 24 24 22 21 18 21 19 16 19 18
91 90 90 88 85 80 72 67 68 68 65 55 53 44 37 27 19 17 22 19 20 20 23 31 35 40 46 50 50 48 45 40 33 27 27 24 27 28 27 29 33 32 28 27 25 29 31 27 27 26 27 20 9 8
90 90 87 85 81 78 70 64 65 65 62 54 50 43 35 27 19 19 25 25 24 24 28 34 38 44 48 50 50 45 40 41 34 26 22 22 19 18 20 22 21 22 26 28 30 25 25 25 25 22 20 16 12 6
90 88 83 82 77 74 69 62 63 62 59 51 47 40 32 25 17 18 26 27 26 30 32 39 43 48 53 51 48 46 43 37 30 26 23 19 13 16 18 19 16 18 21 23 23 20 19 15 14 15 13 10 6 5
88 83 79 79 74 72 68 61 61 60 56 50 47 38 31 22 15 16 25 28 32 34 37 42 48 54 56 52 50 47 41 36 35 31 22 17 15 14 14 13 14 17 17 17 16 16 15 13 11 7 7 6 7 6
87 77 77 75 69 69 67 61 59 58 54 47 44 36 28 20 14 18 25 31 36 40 41 48 55 58 58 54 50 46 40 38 35 30 26 22 18 15 14 12 11 13 15 16 14 13 14 15 19 15 11 10 10 9
80 73 74 70 64 65 64 59 57 56 52 45 42 33 24 16 10 18 26 32 35 42 47 54 60 60 59 54 50 45 40 38 36 32 27 24 20 17 16 12 10 9 12 14 14 16 18 20 19 15 13 11 10 9
72 70 70 64 59 63 61 57 54 54 50 44 39 29 22 16 13 15 21 30 33 42 52 58 63 62 59 56 51 46 41 38 35 32 29 27 22 19 18 15 12 10 11 15 17 16 15 13 13 12 12 13 12 11
66 67 64 60 54 59 59 53 51 53 49 43 41 27 20 12 8 6 15 25 31 44 53 59 65 64 60 57 52 47 42 40 36 33 30 28 28 24 19 17 15 16 16 15 15 15 15 16 17 17 17 16 15 16
63 64 58 55 49 55 55 50 49 49 48 43 40 27 15 10 3 4 9 23 34 48 55 58 65 65 63 59 55 50 43 42 38 35 32 28 26 26 24 21 19 20 19 18 17 17 19 24 23 23 21 19 18 20
60 59 54 51 46 50 51 48 44 46 46 43 40 28 17 6 5 9 6 21 34 46 53 56 64 66 64 61 56 52 45 43 39 37 35 33 31 28 27 27 26 24 22 21 21 23 25 26 25 24 23 24 25 26
56 54 49 46 42 44 46 45 41 42 42 41 38 33 18 6 8 15 5 21 31 38 44 51 61 66 65 62 58 54 47 44 41 40 37 36 33 33 30 29 28 28 28 26 26 27 27 27 28 28 29 31 32 33
54 50 46 43 38 39 43 42 37 36 38 35 33 32 22 12 11 17 24 25 31 35 39 46 56 66 65 62 58 54 52 49 51 48 42 40 37 35 33 30 31 31 32 31 30 30 31 31 31 34 36 39 41 41
52 47 42 40 37 36 39 39 35 32 32 31 29 27 24 16 12 18 24 26 30 33 35 37 46 61 67 63 62 58 55 58 51 46 48 47 45 43 40 36 36 36 36 35 36 35 35 34 34 37 32 25 26 28
50 45 39 37 35 34 37 36 32 30 29 27 27 24 22 19 14 13 20 28 31 33 34 35 40 54 66 69 66 65 66 62 50 44 44 48 49 48 46 42 40 42 42 41 41 42 43 43 39 34 32 32 31 32
47 42 38 37 36 33 36 36 33 28 27 25 24 24 22 19 14 17 17 22 28 36 37 37 38 43 56 71 74 73 68 63 59 53 51 50 49 48 48 48 42 38 36 36 34 32 32 35 37 38 37 37 37 37
47 39 37 37 36 34 37 38 34 28 27 27 24 24 22 21 22 19 19 24 26 29 32 35 39 42 48 62 76 79 76 72 66 63 59 56 52 49 48 47 45 44 44 43 43 45 44 43 43 42 43 43 43 44
45 38 38 36 38 37 37 40 39 31 28 27 27 26 26 25 25 26 24 24 28 32 33 32 31 43 51 55 65 77 82 81 76 72 69 64 61 58 56 56 56 54 53 51 49 47 48 48 49 49 49 49 48 48
43 40 38 38 38 40 39 40 38 34 33 30 30 28 28 29 29 31 32 32 33 34 38 40 38 43 47 55 63 69 78 83 84 80 76 73 71 69 66 64 63 61 59 57 55 54 55 55 55 53 53 53 53 53
43 40 37 39 40 41 43 40 36 34 33 33 34 31 30 31 33 35 38 40 40 42 41 42 47 47 49 55 58 67 74 77 82 86 84 81 78 76 73 70 68 66 64 62 61 59 58 58 58 58 58 58 59 58
42 41 39 41 42 42 44 42 36 32 32 35 34 34 34 36 38 39 44 49 49 49 49 47 47 51 53 52 58 63 71 76 76 80 86 87 85 82 79 78 76 74 71 69 67 65 64 63 63 63 63 63 63 64
41 40 41 44 44 44 45 40 33 34 35 36 37 34 36 39 42 44 50 52 54 56 55 51 48 48 53 55 54 59 66 70 75 77 79 83 88 89 87 85 81 79 77 75 73 70 70 69 68 68 67 67 69 70
41 41 41 45 45 44 40 35 34 35 36 37 38 36 36 39 42 48 53 55 56 55 53 50 46 45 47 52 54 56 58 65 68 72 76 79 81 84 88 89 88 86 83 80 78 77 76 75 75 75 75 76 76 76
40 41 44 44 44 40 35 35 37 39 38 37 38 39 40 41 46 50 53 56 52 49 48 45 42 42 43 46 51 54 56 58 61 66 69 76 78 80 81 84 86 87 86 86 85 84 83 82 82 81 80 80 81 82
41 41 43 45 41 35 34 37 39 39 38 39 41 40 40 43 48 54 55 49 45 42 41 40 39 38 40 43 47 52 54 54 56 60 66 67 73 77 79 80 81 83 84 86 87 86 87 86 85 85 83 83 84 87
41 42 43 40 35 33 35 38 39 38 39 40 41 39 42 46 50 52 47 41 37 36 37 37 36 37 39 42 45 48 51 54 55 56 59 63 67 71 75 77 79 80 83 85 85 86 87 87 87 86 86 86 88 89
41 40 37 34 33 35 37 39 39 40 41 39 40 42 46 49 48 44 38 37 37 35 36 36 35 36 37 40 42 44 47 51 52 53 56 60 65 69 70 72 74 76 78 79 82 84 85 86 86 86 86 87 88 87
37 33 34 34 35 36 38 39 41 41 39 38 42 46 48 47 40 38 38 36 37 37 36 36 36 35 36 37 39 42 44 46 49 52 55 57 62 66 69 71 72 74 75 77 78 80 80 82 83 84 84 83 83 83
31 31 33 34 35 35 38 40 40 40 37 40 46 49 47 42 39 36 37 36 36 35 33 33 33 34 35 35 36 38 41 43 46 49 52 54 58 63 67 70 73 74 75 76 77 78 78 79 80 80 80 79 78 77
32 33 33 35 37 37 39 38 39 37 38 44 47 48 43 37 38 37 38 35 33 31 29 28 29 31 32 32 33 34 37 40 44 45 48 53 57 59 62 66 69 72 74 75 74 73 74 75 75 75 75 76 74 72
31 33 35 36 37 37 36 36 36 39 43 45 47 46 40 36 39 36 36 34 30 28 26 24 24 25 27 28 29 30 32 35 39 42 44 48 52 54 57 61 66 70 70 69 70 70 70 69 69 69 69 68 67 65

GFSWCAN_250_spd_006.txt.gz
Wind_Speed
85 82 83 80 80 76 75 78 75 72 69 68 63 58 52 47 39 27 17 12 9 12 17 27 44 56 66 66 63 58 52 50 44 41 40 36 29 24 28 28 24 26 22 20 14 13 10 13 12 15 22 25 26 27
83 82 78 77 78 74 73 75 72 69 66 63 61 53 51 47 38 27 18 14 12 11 18 23 33 50 62 64 63 60 56 52 48 45 43 36 30 29 33 35 28 28 24 26 23 22 19 18 16 21 24 24 26 22
81 79 75 74 74 72 69 73 69 66 63 59 56 50 46 45 35 26 16 14 17 15 18 26 31 42 53 61 61 60 56 54 52 47 45 36 30 34 36 35 33 32 29 27 28 27 27 25 23 26 27 18 23 15
79 75 74 72 72 70 67 70 68 64 61 58 52 43 43 41 33 23 15 15 18 20 21 26 30 37 48 57 61 59 58 56 52 49 41 34 33 31 33 32 32 32 33 34 32 31 28 26 23 27 31 19 17 9
76 73 71 69 69 68 64 68 67 61 61 56 50 40 39 36 29 21 15 14 18 21 23 26 27 34 44 53 61 61 60 57 50 44 35 34 33 27 26 28 31 31 30 31 32 31 30 24 24 20 13 12 15 9
74 70 70 67 69 68 63 65 66 60 59 56 49 39 38 32 25 19 14 12 19 23 25 27 28 34 44 50 56 59 56 49 44 36 32 29 28 31 28 24 21 24 25 32 33 29 24 20 17 14 12 10 8 5
72 70 67 68 69 68 63 64 66 59 55 53 46 39 38 30 23 17 17 18 21 23 28 29 32 34 42 47 48 47 44 41 37 33 29 26 26 19 18 23 19 25 27 28 26 23 21 17 15 13 11 10 8 6
73 70 66 66 68 67 63 62 64 57 53 51 42 35 35 29 23 17 18 19 24 27 29 33 37 39 41 44 45 44 43 41 37 32 30 24 20 18 19 23 22 17 16 16 20 21 20 19 18 17 18 14 11 10
71 69 63 65 65 63 62 60 62 55 50 49 41 34 32 27 23 18 17 19 25 29 32 38 40 43 42 44 47 47 46 40 37 35 32 27 21 16 19 15 17 16 15 16 18 17 17 19 21 20 17 14 11 10
68 65 59 60 61 59 59 58 60 50 45 46 39 33 30 24 18 13 14 19 22 29 35 40 43 47 47 49 52 50 45 42 39 35 31 28 24 21 20 18 15 12 10 12 15 16 15 15 17 16 16 14 12 9
66 62 55 57 57 56 57 54 56 48 43 42 38 33 31 23 16 9 9 15 19 27 32 40 46 49 50 55 56 52 46 43 42 38 35 31 29 25 23 21 16 13 12 15 16 16 16 16 17 18 16 15 13 12
63 58 52 54 54 53 54 51 52 44 40 38 37 31 30 24 15 9 10 16 21 28 30 37 45 50 54 60 58 55 50 47 43 41 37 33 31 28 26 23 22 17 16 18 20 21 20 21 20 20 19 17 16 17
58 54 50 53 50 49 50 45 47 42 37 35 34 27 30 22 14 12 17 13 17 21 23 32 44 51 56 62 61 58 52 48 45 42 39 34 32 30 28 29 26 24 21 20 21 23 22 22 23 25 25 24 24 23
54 52 49 50 47 46 45 41 43 41 32 31 32 30 26 26 15 17 15 21 22 19 18 28 43 52 55 61 61 59 55 51 48 46 42 40 36 33 31 31 28 28 26 22 22 24 26 27 27 28 30 29 27 27
49 48 48 46 45 44 40 38 39 38 31 24 28 29 25 23 19 13 18 16 15 22 20 26 39 50 56 61 62 60 58 53 53 52 49 46 42 39 36 33 32 30 29 27 27 27 29 30 31 30 30 29 31 32
47 47 45 44 43 40 36 36 33 35 32 23 20 23 23 23 21 16 13 16 17 19 23 26 34 44 56 62 65 65 62 62 58 53 49 47 44 42 42 40 38 36 34 32 32 32 32 32 32 32 32 34 37 34
46 45 43 44 41 36 33 35 31 31 31 25 21 23 21 20 22 19 16 14 13 15 16 24 29 34 49 60 69 70 69 63 57 54 54 54 51 49 46 45 42 39 37 35 35 35 36 37 38 39 38 37 36 37
44 42 41 41 38 33 31 34 28 29 29 26 24 23 23 22 21 23 20 16 15 15 16 18 23 31 36 53 68 71 69 66 61 59 59 57 57 56 54 50 49 48 46 44 42 41 42 43 43 45 45 46 45 42
41 40 41 38 37 32 31 32 28 27 29 27 24 22 25 24 25 27 26 24 21 16 16 17 23 29 35 45 60 71 73 71 67 65 66 64 62 61 59 56 56 54 53 51 50 48 47 49 46 43 39 36 35 36
40 40 39 36 34 32 33 33 28 28 27 27 26 23 23 26 26 29 32 31 28 26 22 18 19 26 37 45 51 60 68 73 73 70 69 69 68 65 62 61 59 57 56 55 54 53 51 49 46 43 42 43 44 46
40 40 37 35 33 34 36 35 29 28 27 27 26 25 25 27 28 28 33 36 34 33 30 28 27 25 29 35 44 53 59 64 70 76 76 72 71 70 67 65 63 60 59 57 55 52 50 51 49 49 48 47 48 49
41 38 32 33 34 35 38 34 32 30 30 29 26 25 27 29 30 31 33 36 37 37 38 38 36 35 36 34 37 46 54 62 65 70 76 79 81 79 75 72 71 68 64 61 60 58 56 56 55 54 54 53 54 54
40 34 33 33 34 36 38 35 33 31 32 32 29 29 30 31 32 32 34 36 38 42 44 44 45 44 45 45 45 45 47 55 63 67 70 74 78 81 83 83 81 77 74 71 68 67 65 64 63 62 61 60 60 59
38 35 31 33 38 39 37 36 34 33 33 32 30 31 33 33 34 36 37 38 40 45 49 51 53 53 52 53 54 54 53 54 56 63 68 69 74 79 81 83 83 84 83 80 77 74 71 70 69 67 65 64 64 65
38 34 34 39 41 40 37 36 34 33 35 33 32 33 34 35 36 38 40 41 43 46 48 51 53 54 56 58 56 56 52 53 55 57 63 68 67 75 78 79 82 84 83 84 82 80 78 77 75 73 73 72 71 71
35 35 38 41 40 38 39 36 33 35 34 34 35 35 34 37 38 38 42 45 47 48 48 48 52 57 56 52 46 43 46 47 52 55 58 62 64 66 75 77 75 77 81 83 83 83 83 82 81 80 79 77 76 76
36 39 41 36 34 39 38 34 36 35 34 35 37 36 37 37 39 41 44 46 49 47 44 47 52 53 47 44 45 41 43 44 47 50 52 55 58 61 61 69 75 75 74 76 78 80 80 80 80 81 81 81 80 80
40 37 33 32 38 39 37 37 35 34 35 38 38 38 39 37 38 41 46 46 45 43 46 49 49 46 43 43 42 41 42 44 45 46 48 50 52 54 55 60 69 72 74 74 74 75 76 77 77 78 79 78 78 78
35 31 34 38 39 37 37 36 35 35 38 39 39 39 38 38 39 43 45 45 43 45 47 44 43 44 40 40 40 39 39 42 43 43 46 48 48 50 52 55 60 66 71 74 76 75 75 75 75 75 74 74 75 75
31 34 38 38 36 36 36 35 37 38 38 39 40 39 38 39 41 43 43 43 43 43 42 42 41 39 38 37 38 37 36 38 40 41 42 45 47 48 49 53 56 59 63 67 70 72 75 76 75 75 74 75 76 77
33 38 38 35 34 34 35 36 37 38 38 38 38 38 40 42 41 41 41 41 40 40 40 39 38 37 36 35 35 35 34 35 37 37 38 40 43 45 47 51 54 56 58 61 63 65 68 72 74 75 75 76 76 75
38 36 34 33 32 33 34 36 38 37 37 37 37 40 41 41 40 41 42 40 38 38 37 37 35 33 32 32 32 31 31 32 32 33 34 36 39 43 46 50 53 55 57 59 61 62 62 66 68 70 71 71 71 70
33 31 30 31 33 34 35 36 36 36 36 37 38 38 39 40 41 43 40 37 36 36 35 33 32 29 28 28 27 26 26 27 28 29 31 34 37 40 42 47 51 53 56 58 60 61 61 61 62 64 66 66 67 65

GFSWCAN_250_spd_009.txt.gz
Wind_Speed
91 87 80 75 69 65 64 64 64 61 58 56 59 60 58 58 49 40 32 21 14 11 18 32 53 59 59 55 53 49 46 45 44 43 38 34 32 31 27 25 27 27 21 20 18 17 16 15 19 24 26 27 32 37
86 81 76 73 69 63 62 60 61 59 54 54 53 55 56 53 51 41 32 26 17 16 18 25 40 58 61 62 56 53 50 49 46 43 40 37 33 34 28 25 29 27 27 25 23 24 20 23 24 27 30 30 32 31
82 78 75 70 68 61 58 59 58 57 54 52 50 50 50 49 44 43 34 26 21 19 21 26 32 48 61 64 62 58 56 52 48 45 42 38 35 36 31 27 28 30 30 26 25 25 26 29 26 27 27 27 28 18
78 76 73 68 65 61 57 57 57 57 53 52 48 47 45 43 42 40 36 27 23 22 23 26 31 38 52 65 66 63 59 55 52 49 45 40 37 36 32 29 29 33 32 31 30 28 28 28 26 25 22 20 19 17
76 74 71 66 63 58 55 57 56 56 53 51 48 45 42 39 39 37 34 25 22 23 24 25 31 36 41 55 69 66 61 59 56 52 47 43 38 36 32 30 33 35 34 31 31 31 30 27 25 21 20 14 13 12
71 71 69 65 61 56 56 57 55 56 54 51 47 45 43 42 37 37 28 23 22 25 22 25 32 34 37 46 59 68 65 61 60 55 49 43 39 38 36 37 36 28 28 30 30 29 28 26 24 19 16 13 14 12
68 69 66 62 58 55 56 56 56 55 54 50 47 45 42 42 39 33 24 20 21 23 24 28 32 35 36 41 50 62 64 64 61 54 50 42 39 39 37 37 25 25 29 32 29 28 30 29 22 18 16 15 15 11
68 65 64 60 57 54 56 56 56 54 53 49 46 44 42 40 38 29 21 16 19 23 26 28 33 36 38 40 47 55 62 63 58 53 48 41 37 37 30 29 30 27 27 26 28 28 28 24 21 20 19 19 18 11
66 62 60 56 55 54 55 54 54 52 52 48 46 44 42 37 32 23 16 13 16 22 27 28 32 38 39 41 46 50 55 57 55 50 45 38 35 26 27 29 24 22 21 24 26 26 24 22 20 21 23 21 15 11
67 62 59 56 52 53 52 53 52 49 50 46 46 42 41 33 25 16 11 10 15 23 28 29 33 37 39 41 44 47 50 51 51 47 41 37 29 30 28 21 19 22 23 22 22 23 22 20 18 17 18 14 13 12
64 61 57 54 51 51 52 52 50 46 47 43 43 40 36 30 20 13 8 7 13 20 24 27 31 36 39 41 44 45 47 48 46 44 40 34 34 31 25 23 22 21 20 18 17 16 16 14 12 11 12 13 13 12
63 59 55 52 49 51 50 51 47 42 45 41 42 39 31 28 19 12 7 5 12 16 21 23 28 36 40 41 43 43 45 48 47 43 38 39 36 34 29 26 27 25 20 16 16 16 14 13 13 14 14 15 15 15
63 59 51 49 48 49 47 48 44 39 41 39 38 38 28 21 20 13 13 6 11 18 19 23 30 37 43 44 46 48 52 51 48 44 43 42 40 38 35 32 30 28 24 20 20 19 19 19 18 18 19 20 20 21
60 55 54 48 46 45 44 45 42 36 37 38 33 35 29 19 15 12 12 13 14 15 19 22 30 37 43 46 48 51 54 53 52 51 47 45 43 41 39 35 32 32 31 27 25 23 23 25 25 24 25 26 26 27
56 54 50 46 45 43 41 43 39 34 32 37 32 28 29 22 14 11 10 6 2 7 21 21 25 33 40 48 52 54 58 59 57 51 48 46 45 44 41 39 36 36 34 33 30 27 27 26 27 28 28 29 31 32
51 49 49 47 44 40 40 41 37 35 28 34 34 27 25 24 19 14 10 10 4 8 7 22 26 27 35 47 53 57 62 64 61 56 53 51 50 49 46 43 41 40 38 36 35 32 31 30 30 29 29 30 31 32
48 46 46 47 42 41 40 40 37 33 30 30 30 30 24 24 22 18 13 10 8 7 11 16 25 29 33 41 52 57 64 66 64 61 58 56 54 53 53 51 48 45 43 41 39 37 36 35 35 35 35 35 36 36
48 45 45 42 41 42 40 40 37 32 32 31 28 29 27 23 23 23 17 15 13 9 8 14 24 29 31 37 47 55 59 64 68 67 65 62 59 57 56 56 55 52 49 47 45 44 43 42 41 40 39 39 40 40
46 45 43 40 42 41 41 39 36 32 32 31 29 29 29 25 24 25 24 20 19 17 14 11 15 26 34 40 43 48 52 57 64 67 69 69 66 64 62 60 59 58 57 54 53 50 49 48 47 45 45 46 46 45
46 44 41 41 42 40 41 39 36 32 32 31 29 30 30 29 27 27 27 27 25 23 21 19 17 18 23 31 38 44 48 49 55 64 69 71 71 69 67 66 65 63 61 59 58 57 56 54 52 51 50 50 49 49
45 43 42 42 42 41 41 39 37 34 33 33 31 29 31 32 31 31 30 30 29 28 27 26 25 24 24 24 28 36 43 49 54 60 67 73 76 74 72 71 69 68 67 66 65 63 62 60 59 57 55 55 55 54
45 44 41 41 41 42 43 40 36 36 35 34 32 30 31 33 33 33 34 34 32 30 32 31 30 31 30 29 29 30 34 38 44 50 54 62 72 76 77 76 73 72 73 72 70 68 66 64 62 61 58 55 54 55
45 44 41 41 41 43 42 37 36 35 35 34 33 34 34 34 34 34 36 35 35 36 36 35 35 35 36 36 35 35 34 35 38 41 45 48 55 63 72 77 80 80 78 75 75 74 71 69 66 65 63 60 58 56
45 42 41 39 41 43 42 37 35 35 37 35 34 35 35 35 35 37 38 35 36 38 38 39 39 40 40 40 41 42 42 43 42 42 42 44 45 48 54 64 72 78 83 84 83 81 77 74 72 70 68 66 65 64
42 39 38 40 42 44 42 37 37 38 37 34 34 36 37 37 37 37 39 36 38 38 39 40 41 42 44 44 45 45 44 44 46 49 52 51 50 50 49 53 60 69 76 78 82 85 86 82 80 78 76 75 74 73
40 37 39 44 45 42 40 41 42 39 37 35 37 37 38 38 36 36 40 38 37 39 41 42 43 45 46 47 50 47 46 46 49 54 56 52 56 59 57 56 57 61 68 74 77 79 82 85 84 82 79 77 76 77
39 42 45 46 43 41 42 43 41 38 36 37 40 39 38 37 37 38 39 39 40 41 42 44 46 47 50 48 46 48 52 53 52 54 52 47 49 55 58 58 59 63 67 71 74 74 76 79 81 82 81 78 77 76
44 47 44 39 38 39 43 43 39 37 39 41 42 38 36 37 38 38 39 40 42 44 46 46 47 49 46 45 48 50 51 48 47 46 45 45 45 48 52 54 57 62 64 68 69 69 70 74 77 78 77 76 76 75
46 41 36 35 38 43 45 40 38 39 42 42 39 37 38 39 38 37 39 42 45 46 48 49 48 44 43 48 50 46 44 43 43 42 43 43 44 45 46 48 52 55 59 63 64 65 66 68 72 76 76 74 73 72
38 35 35 38 42 44 40 39 40 41 41 38 36 38 39 39 37 37 40 43 44 46 47 46 42 42 44 45 41 40 43 42 41 40 41 41 42 43 45 46 48 50 54 58 58 59 60 62 67 71 73 72 71 71
36 36 41 43 43 40 40 40 41 40 36 34 36 40 39 38 37 37 40 42 44 46 43 41 41 44 42 39 39 40 41 40 39 36 35 37 39 40 42 43 45 47 51 52 51 52 56 61 64 68 70 70 71 71
36 39 41 41 39 38 40 39 37 35 36 38 38 37 38 40 39 39 39 41 42 39 39 41 41 38 38 39 39 39 39 36 33 31 30 32 33 35 37 39 42 45 49 49 50 53 56 58 60 64 67 70 70 69
40 42 40 39 38 37 36 36 37 39 39 38 35 36 39 39 38 38 41 41 39 38 38 38 36 37 38 38 37 36 34 30 27 26 27 28 28 31 34 37 40 45 48 49 50 50 52 54 57 60 61 62 63 63

GFSWCAN_250_spd_012.txt.gz
Wind_Speed
93 91 85 80 75 69 68 62 60 57 59 61 60 56 52 49 50 48 42 33 29 20 17 24 39 48 50 48 46 44 45 46 46 44 39 34 31 31 27 23 20 17 16 19 17 15 13 15 18 21 25 29 29 35
87 83 80 77 72 68 64 60 57 56 57 60 58 53 49 46 46 44 43 39 35 29 20 23 31 47 54 54 51 48 46 46 46 47 43 37 35 31 27 24 19 18 19 19 19 20 18 19 20 24 26 26 26 22
80 77 75 73 68 66 62 58 55 53 56 59 57 52 46 43 41 40 39 40 37 37 29 24 29 38 52 55 53 51 49 48 46 45 42 39 38 33 30 27 23 20 22 20 21 21 23 23 22 24 26 24 24 22
73 72 72 69 67 64 61 57 53 50 56 58 57 52 46 42 40 37 39 38 38 40 35 27 30 35 41 56 58 55 53 49 48 46 42 41 38 34 29 28 28 26 25 22 23 25 26 25 23 24 25 24 22 22
67 68 68 66 64 62 60 54 52 50 56 59 57 53 47 43 40 39 38 35 37 38 34 28 29 32 37 48 64 61 58 53 50 46 45 44 39 36 31 32 34 27 24 25 25 27 26 24 24 25 24 22 21 21
65 66 67 63 62 60 57 51 50 53 56 58 59 53 47 43 41 41 35 30 33 31 29 27 28 31 35 41 55 67 62 58 54 50 48 45 41 38 37 36 32 30 26 29 32 32 27 22 24 23 23 21 18 20
63 65 64 62 60 59 56 52 49 52 55 57 59 53 47 43 42 41 30 28 25 23 22 23 28 29 31 37 45 58 66 64 60 56 52 47 44 42 40 32 27 30 31 37 41 32 26 26 28 25 22 17 17 22
63 62 63 61 59 57 55 52 50 53 54 56 58 53 47 43 40 33 31 26 22 20 17 22 26 28 29 33 39 46 59 67 63 60 55 52 47 44 37 34 34 39 40 37 31 29 27 26 27 23 21 18 19 22
61 59 61 61 57 55 55 51 50 51 53 55 56 51 47 43 36 31 30 22 17 14 16 21 24 27 28 30 35 40 47 59 66 63 59 55 51 47 41 39 38 34 34 32 34 30 26 25 23 23 23 22 21 20
59 58 58 61 58 55 54 53 50 49 50 53 52 49 43 40 34 29 26 18 15 12 13 19 24 26 26 30 34 37 42 48 56 63 62 57 54 49 44 40 36 33 32 34 31 25 22 21 22 21 19 17 18 17
57 56 57 59 58 53 53 53 49 49 48 48 48 47 39 35 30 26 22 16 12 5 7 16 23 24 26 31 35 37 40 43 47 53 58 58 54 48 42 37 34 34 30 29 24 19 21 22 18 16 17 14 13 14
56 57 56 56 55 53 51 52 45 47 46 45 45 44 36 30 29 24 17 15 9 3 8 14 21 23 27 32 34 37 39 41 44 47 50 48 47 44 39 36 36 33 28 23 20 21 20 16 14 15 15 12 11 12
56 56 56 53 54 52 52 50 41 42 42 42 42 40 32 26 25 25 17 11 11 9 12 17 21 23 26 30 33 36 38 40 42 45 42 44 43 41 38 37 38 31 28 25 23 21 20 18 16 13 13 14 15 15
56 56 54 53 51 50 51 48 40 38 39 39 38 36 30 23 20 23 19 15 14 13 13 18 21 25 28 31 33 35 39 40 41 41 41 42 43 43 40 40 38 32 29 29 28 26 24 22 21 19 18 18 18 19
55 54 52 51 48 48 49 45 41 37 37 37 35 31 30 24 20 18 19 13 10 10 12 21 21 23 26 31 34 37 39 43 43 42 41 45 46 43 42 43 41 38 34 33 32 32 30 29 27 26 25 24 24 25
54 52 51 47 47 47 47 44 40 37 36 36 33 29 28 25 21 21 18 16 8 10 12 12 21 23 24 28 35 37 41 44 46 46 47 49 49 44 46 47 45 43 40 39 36 37 36 34 33 31 30 29 29 28
53 53 49 45 45 43 44 43 41 37 34 34 32 28 26 26 23 22 22 20 14 10 9 18 20 27 28 28 31 39 44 46 48 51 54 54 52 49 49 50 49 48 46 44 42 41 40 38 37 36 35 34 34 34
52 49 44 43 40 40 43 42 41 38 33 33 31 29 27 26 26 24 23 23 22 16 14 13 16 21 31 33 36 41 41 42 48 53 58 59 58 55 54 52 52 53 52 50 47 46 45 44 43 42 41 39 38 38
48 44 41 40 40 40 41 41 38 37 36 33 31 29 29 28 27 25 24 25 25 24 20 18 17 19 23 30 37 39 40 41 44 50 57 62 64 63 60 58 57 57 58 56 54 52 50 49 47 46 45 44 44 43
45 41 41 41 41 40 40 39 38 38 36 33 32 29 30 29 31 29 28 27 27 27 26 24 22 23 22 24 28 32 38 43 47 51 56 58 64 68 67 65 63 61 59 59 61 59 57 55 53 51 50 49 49 50
42 42 42 42 41 40 39 39 39 38 36 36 33 32 32 31 32 32 32 31 28 28 31 32 29 25 26 27 27 28 31 35 36 40 48 58 61 65 69 73 71 69 67 65 63 63 64 63 61 59 58 56 56 55
44 42 42 43 42 40 39 40 40 39 37 36 35 33 33 34 34 33 34 34 32 30 33 35 36 34 30 28 30 31 31 32 33 36 40 43 48 57 65 69 74 76 77 75 74 71 69 67 66 66 65 64 62 61
44 43 43 42 40 37 39 40 39 38 37 37 36 35 35 36 35 36 37 36 34 36 37 37 38 38 36 33 32 31 32 34 36 37 36 36 40 44 49 55 61 67 73 78 79 79 78 75 74 72 71 70 69 68
46 43 42 39 39 39 41 40 39 38 36 37 37 37 37 37 38 38 39 37 36 40 40 41 42 43 40 37 36 35 34 34 35 38 40 40 40 40 40 43 47 52 57 60 65 73 78 78 79 78 76 75 73 72
44 41 38 40 41 41 41 40 38 38 39 37 37 38 40 39 40 40 41 38 40 41 40 41 42 44 43 41 38 37 37 37 38 39 36 37 40 42 44 45 45 45 47 50 54 56 60 64 70 75 76 77 78 76
41 39 39 42 42 41 40 40 38 39 39 38 39 40 40 40 40 41 41 41 43 41 41 42 42 43 43 42 42 40 39 39 39 42 42 40 41 42 42 44 47 49 50 51 53 54 55 57 57 59 63 69 72 74
37 40 43 44 42 40 39 38 39 40 40 41 42 40 39 40 41 41 42 44 43 43 44 42 41 42 42 41 41 41 40 40 41 44 45 45 44 43 44 48 51 54 54 55 54 56 57 59 59 58 58 60 63 65
39 43 44 41 38 37 37 39 41 41 40 40 40 39 39 41 41 42 44 43 44 45 45 41 41 42 42 41 40 40 40 41 43 45 47 48 48 49 50 54 59 59 58 57 58 61 62 62 64 62 64 63 62 62
43 43 39 37 37 38 41 43 42 40 39 40 40 39 40 42 41 43 43 44 45 46 43 42 41 42 42 41 40 41 41 42 45 47 48 52 52 47 47 48 51 54 56 56 57 60 61 64 65 62 69 69 64 63
42 37 37 38 40 41 43 42 40 40 41 41 39 40 41 42 40 40 42 43 45 43 42 41 41 42 41 41 42 40 38 44 51 51 48 46 44 44 45 48 49 50 50 51 53 54 55 58 59 62 68 69 64 61
38 36 36 37 40 41 40 40 41 40 38 37 37 39 40 41 40 40 41 41 40 40 40 38 39 40 41 40 39 44 48 45 46 44 42 42 42 42 43 46 45 45 45 46 47 48 50 53 58 62 62 62 62 61
33 35 36 38 40 39 41 41 38 36 35 36 38 39 39 41 43 41 34 34 37 38 39 39 38 38 38 40 43 46 48 44 39 40 39 39 39 39 40 40 40 40 41 43 45 47 50 52 54 51 50 55 59 59
36 34 36 40 42 41 39 38 36 36 36 36 37 38 41 42 39 34 33 34 35 36 36 36 36 37 39 43 44 41 41 38 38 37 36 34 34 32 32 32 34 35 38 40 41 44 47 46 46 47 50 53 55 55

GFSWCAN_250_spd_015.txt.gz
Wind_Speed
96 94 88 83 76 75 71 70 67 64 58 58 57 58 57 58 54 50 49 48 41 20 16 13 20 28 41 38 36 39 42 40 38 37 35 32 29 26 24 27 23 19 15 12 12 11 13 13 14 13 16 20 24 26
92 86 81 75 72 70 67 67 64 61 57 56 54 56 55 54 53 50 46 46 45 43 27 19 17 24 33 49 47 43 45 44 42 40 38 37 33 30 26 28 26 21 18 14 12 13 16 16 15 16 17 21 25 26
84 79 75 70 67 66 66 65 61 58 56 55 55 56 56 53 47 46 47 43 44 45 38 32 20 22 30 39 51 51 46 48 48 46 43 40 37 33 30 30 29 25 20 14 10 14 17 18 19 20 20 23 24 25
79 75 70 66 63 64 66 62 58 56 55 53 55 57 57 53 46 45 44 44 43 45 42 40 27 24 27 34 44 54 51 49 49 50 48 45 42 38 33 34 34 27 22 15 12 14 16 20 20 20 21 22 24 23
75 73 67 64 61 61 64 61 56 57 54 52 55 57 58 53 48 47 44 44 41 42 43 41 34 26 27 32 37 52 55 53 51 48 48 47 45 42 38 39 33 26 22 22 18 18 18 19 21 19 19 21 24 25
72 69 64 62 63 59 61 60 56 56 53 53 55 58 57 53 50 48 44 42 39 38 39 37 33 26 28 31 35 43 53 56 55 51 48 46 44 43 43 39 28 26 23 24 27 23 23 23 22 22 21 22 24 22
69 65 62 61 61 58 58 59 55 52 53 52 55 57 55 52 50 47 41 40 39 35 29 25 23 24 27 30 34 39 51 56 58 55 52 48 45 44 43 38 34 32 29 29 28 25 23 23 22 23 25 24 23 16
68 64 61 60 58 57 58 56 54 52 52 52 55 57 54 52 49 43 38 38 34 25 20 18 18 22 22 26 31 35 44 56 62 61 56 51 46 44 45 42 37 35 34 30 27 28 29 32 31 29 28 26 20 17
66 62 60 60 58 56 55 56 53 52 52 51 53 56 53 50 45 40 37 33 25 20 17 13 14 16 19 24 28 31 38 49 61 63 59 53 48 47 46 43 39 38 34 30 30 32 33 33 32 31 28 24 20 18
64 60 58 58 57 55 54 56 54 52 50 51 50 54 52 48 41 36 35 29 23 19 10 9 12 14 18 22 24 28 34 42 52 61 61 56 53 51 49 45 42 40 36 34 32 31 33 32 30 26 24 22 19 18
64 60 58 58 53 54 52 55 52 51 49 49 47 51 50 44 38 34 31 25 20 14 9 7 9 13 16 19 21 24 29 36 43 51 57 61 59 55 51 48 46 42 39 37 34 32 32 30 27 24 22 20 19 17
64 59 60 57 53 53 50 52 52 51 50 46 44 47 46 41 34 31 29 20 16 13 9 6 7 12 15 19 21 22 26 30 34 40 47 57 59 60 57 53 50 45 41 38 32 31 30 30 24 20 18 19 19 15
61 59 60 56 53 52 50 51 50 50 48 45 40 42 42 38 30 28 27 18 17 14 12 7 8 11 16 18 19 22 24 27 28 34 39 47 53 58 58 56 52 48 45 39 31 31 32 26 21 20 18 16 17 16
59 59 60 56 54 51 49 47 49 48 47 44 37 40 37 36 27 25 23 17 14 16 12 8 10 12 17 18 20 22 24 25 26 29 34 37 41 47 51 53 52 47 44 37 32 34 31 25 22 20 19 17 18 18
57 57 60 58 53 50 49 47 47 46 44 39 36 38 35 32 27 22 19 17 12 12 14 12 13 17 16 20 20 23 25 26 28 29 32 35 37 40 43 45 45 44 42 37 35 36 33 28 27 25 23 24 23 23
54 57 59 57 51 48 47 45 45 44 40 36 35 36 34 30 25 22 19 16 12 12 12 12 12 17 20 21 22 24 28 28 29 32 34 37 39 41 42 43 44 44 43 40 39 37 34 33 31 31 30 30 29 29
50 56 54 54 51 48 45 44 43 43 39 36 35 35 32 29 26 23 21 18 14 13 14 14 13 18 20 25 27 29 33 29 31 33 37 40 42 43 44 45 46 45 45 43 44 41 38 37 35 35 35 36 35 34
51 51 51 51 48 45 43 42 41 41 39 36 34 32 30 29 26 24 24 20 17 16 14 15 18 17 18 24 32 35 33 32 34 36 37 40 44 46 47 50 50 49 48 47 48 47 45 43 42 40 40 40 39 39
50 50 48 45 43 42 40 40 39 40 39 37 32 30 30 29 27 25 25 24 21 20 19 17 19 21 23 24 24 25 27 34 37 39 41 41 43 47 49 52 53 54 53 53 53 52 50 48 47 46 45 46 45 44
49 48 45 42 41 40 37 37 37 40 38 33 31 31 29 29 29 28 28 27 24 23 23 22 22 23 23 25 28 26 24 26 29 34 39 44 47 50 53 56 58 59 58 58 58 58 56 54 53 52 51 50 48 48
49 46 43 39 39 38 37 38 37 38 37 33 31 30 30 30 30 30 30 30 27 27 27 26 25 25 27 26 27 28 32 32 29 29 33 38 44 47 50 56 60 63 65 64 63 63 63 61 60 59 58 56 55 55
47 43 41 39 39 37 38 39 38 36 36 34 32 32 31 32 33 32 31 32 31 29 31 30 29 28 28 29 29 29 31 32 35 35 32 32 34 40 45 44 47 61 68 69 71 70 69 68 67 67 66 65 64 63
44 41 39 41 39 36 40 39 38 37 36 34 33 33 32 33 33 32 33 34 32 31 34 32 32 32 32 32 32 32 32 33 35 36 37 37 37 35 36 41 44 46 51 56 65 72 75 75 74 73 72 71 69 69
46 43 40 37 37 40 40 39 39 37 35 35 33 31 32 34 34 34 35 34 32 35 36 35 35 36 36 35 33 34 36 36 35 37 37 38 38 40 42 41 40 41 45 49 51 57 60 66 72 76 77 77 75 75
44 38 34 37 39 41 41 40 39 36 35 34 32 32 34 34 34 35 36 35 35 36 37 37 37 39 39 38 37 35 35 36 37 37 36 39 41 41 41 42 44 45 43 44 44 46 50 54 58 61 63 67 73 78
38 36 37 41 43 42 42 40 39 37 34 33 33 34 34 34 35 38 39 37 38 37 37 37 40 41 40 40 40 38 36 35 38 40 38 40 41 41 41 41 43 45 43 46 49 48 49 49 49 49 50 52 55 58
34 38 44 46 44 41 40 39 37 35 34 34 35 35 34 36 37 37 38 41 39 38 37 39 40 40 40 41 40 39 37 37 39 41 42 41 40 40 41 43 46 46 43 46 50 52 54 53 54 54 53 52 52 51
39 45 46 44 41 40 40 37 36 35 34 36 35 34 36 39 37 35 36 36 37 38 40 39 39 40 41 40 39 37 36 37 39 41 43 43 39 40 42 48 51 51 51 49 52 54 56 57 57 57 57 56 56 55
43 45 43 42 42 40 38 37 36 36 34 35 37 36 37 34 33 35 37 38 38 39 39 39 40 40 40 39 37 36 36 36 38 41 42 45 47 46 48 51 50 49 50 49 48 51 54 56 56 58 58 57 58 56
42 41 41 41 40 39 37 36 35 35 37 39 37 34 33 33 35 35 35 36 38 39 39 39 40 39 38 39 38 36 34 36 38 43 49 49 47 44 44 46 47 48 49 48 47 49 52 54 55 57 59 62 60 60
42 42 42 41 39 38 35 35 37 37 37 34 33 34 34 34 33 34 35 37 38 38 37 37 37 38 37 36 36 37 36 37 41 44 48 47 44 45 43 40 40 41 41 43 44 46 49 50 52 54 55 57 58 61
40 40 39 37 35 34 35 37 37 34 32 33 33 32 33 35 35 33 33 36 36 34 34 35 35 36 36 35 36 38 41 43 42 42 41 41 38 37 37 38 39 40 42 43 44 45 46 46 47 50 51 52 54 56
31 31 32 34 36 38 38 35 34 33 32 32 32 32 33 35 35 34 31 30 31 32 32 32 33 34 34 36 40 41 41 41 43 41 39 36 35 37 37 38 37 37 37 37 37 37 38 39 41 42 44 45 47 49

GFSWCAN_250_spd_018.txt.gz
Wind_Speed
102 100 96 90 85 80 76 72 72 68 65 63 60 58 55 56 53 52 51 46 44 36 20 24 27 25 25 31 31 31 33 32 31 32 33 34 36 34 33 30 27 25 28 24 19 22 19 19 17 15 17 14 16 22
100 95 89 83 79 74 71 69 69 65 63 61 58 56 54 56 52 53 49 48 46 45 37 26 24 29 27 28 35 37 35 38 37 37 38 38 38 35 33 32 31 27 26 26 18 20 17 17 14 14 15 15 17 20
92 88 84 79 74 71 68 67 67 63 61 60 55 53 53 55 51 49 49 45 45 48 47 36 30 21 33 30 30 40 42 41 43 43 43 43 41 39 35 32 33 32 27 22 21 18 15 12 12 12 15 17 19 20
87 84 81 76 72 68 66 65 65 63 59 58 56 51 52 55 51 49 49 47 45 44 45 43 36 28 28 33 33 34 44 48 48 50 48 47 45 43 40 38 32 30 30 24 20 20 13 13 12 13 13 17 18 22
85 81 77 73 70 67 65 65 64 62 58 57 55 52 52 56 51 49 47 48 44 43 40 41 37 35 27 27 34 37 41 50 52 53 53 51 49 46 44 39 31 32 33 31 27 23 18 17 13 13 14 18 21 23
83 78 74 73 70 68 65 64 63 61 59 55 56 53 53 57 52 51 49 47 42 40 37 35 34 31 31 30 35 41 41 48 54 56 56 55 52 49 44 38 36 33 36 36 32 30 24 20 17 17 17 20 23 25
81 78 75 74 71 68 64 63 61 59 59 54 56 54 53 57 52 52 49 47 39 37 32 28 27 26 28 29 36 41 43 45 51 57 56 54 55 51 46 43 40 38 37 37 31 26 24 23 21 19 23 24 23 25
79 77 74 72 68 66 62 61 59 56 58 55 56 54 52 56 51 52 51 44 36 30 28 24 20 19 23 28 33 39 41 44 49 58 56 50 51 50 50 44 42 40 38 36 31 27 24 22 22 26 27 28 26 24
76 74 71 67 65 63 59 58 58 56 57 56 56 54 52 55 50 50 50 44 35 27 26 22 15 14 19 23 28 32 35 40 45 55 55 53 52 51 45 43 41 40 39 38 34 32 29 26 24 27 30 30 27 24
72 70 67 64 61 61 58 55 55 55 56 53 53 53 51 52 48 48 46 39 34 29 25 19 12 14 17 21 24 29 33 37 40 45 53 55 55 51 47 44 43 41 41 41 36 33 30 28 28 31 32 31 28 24
68 66 64 61 60 58 56 54 52 52 52 53 52 54 48 49 45 44 39 34 29 27 23 15 10 12 14 18 22 26 29 31 34 39 47 56 57 54 51 48 45 43 43 42 39 36 34 32 32 33 31 26 24 24
63 61 59 58 57 55 54 53 50 50 52 54 49 48 47 48 44 41 34 29 26 23 17 13 11 10 15 16 17 20 22 24 27 32 40 54 60 58 54 52 49 47 44 43 41 40 38 35 34 33 27 25 24 22
58 56 56 55 54 54 53 50 48 49 49 50 48 47 46 44 42 39 31 27 25 21 17 12 11 10 11 12 13 14 15 18 22 27 35 46 57 62 60 57 54 52 48 45 45 43 39 36 36 33 26 26 23 22
53 51 53 52 52 52 50 48 46 48 49 50 47 45 42 40 38 34 30 25 23 21 17 12 11 10 11 12 13 13 13 14 17 23 29 37 46 57 63 64 60 56 52 49 48 47 44 39 38 33 27 24 23 22
49 49 50 49 51 50 49 48 47 47 48 48 45 44 41 39 35 30 28 25 22 20 16 14 12 10 12 13 15 15 13 14 15 20 26 31 38 47 55 60 62 63 61 58 55 53 49 44 40 34 31 27 25 25
47 48 46 47 49 49 47 46 47 47 46 46 43 42 38 38 34 28 27 24 23 22 18 14 14 12 12 15 17 17 18 17 17 19 23 28 34 39 43 49 53 58 60 60 59 56 53 48 41 37 36 32 29 28
48 45 45 45 45 45 45 46 45 45 44 44 42 39 37 36 32 28 27 25 22 22 19 18 16 15 14 15 19 21 19 16 20 22 21 25 31 36 39 41 44 48 51 53 52 51 49 46 42 39 40 38 37 35
47 43 44 44 44 44 43 42 43 42 42 42 38 37 37 34 30 28 29 27 24 23 22 20 19 19 19 19 18 16 16 18 21 25 27 26 27 31 38 42 44 46 47 49 49 49 48 46 45 43 42 42 40 40
43 40 44 45 43 41 40 41 40 39 40 39 37 36 35 32 29 29 30 29 28 25 23 22 22 20 20 22 22 20 19 19 21 24 27 31 34 35 36 42 47 49 51 51 52 52 51 50 49 48 48 46 45 44
42 41 45 43 40 39 39 40 39 39 38 37 36 36 33 30 29 30 30 29 28 28 27 24 24 22 21 21 23 24 24 23 22 22 25 29 31 35 41 43 47 51 54 57 57 57 57 56 55 54 53 52 51 49
43 45 43 39 38 36 37 39 37 38 39 38 37 35 33 29 31 30 30 29 29 30 30 28 26 26 24 23 23 24 25 26 26 24 26 26 30 33 35 41 47 51 52 57 61 62 62 61 60 60 59 58 56 55
45 44 43 40 38 36 37 39 39 41 39 37 38 37 32 31 31 31 29 31 32 30 30 29 29 29 28 27 26 26 25 26 27 28 28 28 28 32 34 37 40 43 47 51 55 59 64 66 65 65 65 64 63 62
45 46 42 39 37 36 39 39 40 40 39 38 38 35 32 31 32 32 32 35 33 27 31 32 31 32 32 30 29 30 30 29 29 28 30 31 31 32 34 37 39 38 41 45 49 54 56 58 65 68 69 70 69 68
47 45 42 38 36 40 42 41 41 41 41 38 37 35 32 32 32 32 36 36 30 31 34 34 32 34 34 32 30 31 31 32 31 31 31 33 36 35 36 35 36 40 42 41 42 47 51 54 56 61 66 70 72 74
42 40 36 38 42 43 43 42 42 43 41 38 36 33 33 33 34 35 37 35 32 34 34 33 34 34 34 33 31 31 33 34 34 33 32 35 38 37 36 38 40 39 39 43 45 46 45 45 47 51 55 60 66 70
35 36 36 41 43 43 44 43 42 41 40 37 35 34 34 34 35 37 37 33 33 34 34 34 34 33 33 33 31 32 35 36 37 38 35 35 36 38 38 39 41 40 40 43 45 46 47 48 49 48 48 47 48 52
32 34 42 47 45 44 43 41 40 41 39 35 35 35 35 34 35 37 35 33 33 34 35 34 34 33 33 34 35 36 36 37 38 40 39 38 37 37 39 42 43 42 40 41 45 48 49 48 50 52 54 53 50 49
34 42 48 46 41 41 42 40 39 38 37 37 36 34 34 35 36 36 35 34 33 33 33 33 32 33 35 36 37 36 36 36 38 40 42 42 39 37 38 41 44 45 44 43 45 48 51 51 51 51 52 54 56 56
41 49 45 42 40 40 42 41 38 37 36 35 34 35 37 36 35 35 35 35 33 32 33 33 34 35 35 34 34 34 34 36 39 41 41 43 41 37 37 42 46 48 48 47 46 48 50 53 54 54 53 56 57 58
47 43 41 39 41 42 40 38 38 36 35 36 37 37 36 34 35 36 34 33 32 33 33 34 34 34 34 33 31 32 35 38 38 38 39 41 41 41 40 41 46 47 47 48 46 45 46 47 49 50 51 52 53 55
41 40 41 40 40 41 41 38 36 36 38 37 36 35 35 36 35 34 32 32 34 33 34 34 33 32 30 31 34 38 37 34 35 37 41 44 44 43 43 43 43 42 43 44 45 46 48 49 49 50 50 51 51 52
44 43 43 43 44 41 37 35 36 37 37 36 36 35 35 33 31 30 31 33 33 34 33 31 30 30 32 35 38 37 36 35 35 37 39 42 44 45 45 43 43 42 41 40 39 39 40 41 42 44 45 45 46 48
41 42 41 41 39 36 37 37 36 37 37 37 35 33 31 31 31 31 30 32 32 29 29 29 30 33 35 35 34 34 36 37 38 40 41 40 41 39 36 34 33 34 35 37 37 38 38 40 41 42 42 43 44 45

GFSWCAN_250_spd_021.txt.gz
Wind_Speed
100 99 99 96 91 85 80 78 73 69 65 62 59 55 56 53 54 50 47 42 38 34 26 29 28 27 23 24 25 30 30 29 28 28 26 26 28 30 33 34 33 33 31 29 27 27 27 23 22 24 22 23 22 21
99 95 93 89 85 81 76 74 70 66 65 62 59 55 55 53 53 52 46 43 41 42 38 32 33 28 25 26 26 28 34 33 32 32 31 30 33 35 35 35 33 32 27 26 26 24 23 21 25 25 24 23 19 18
91 88 87 84 82 79 75 73 68 66 64 61 60 54 53 52 53 53 48 43 41 43 44 42 35 31 29 29 25 28 32 36 37 36 36 36 37 38 38 35 32 31 27 26 27 24 21 21 20 22 23 23 20 18
88 84 85 82 81 79 76 73 69 66 64 63 60 55 52 52 53 53 49 43 42 41 41 49 43 35 31 29 32 31 30 35 39 40 41 41 42 43 41 38 32 31 32 28 30 29 23 20 23 23 21 19 17 18
87 85 84 82 79 77 74 70 68 66 65 61 58 54 50 51 52 53 49 44 43 42 40 46 44 39 33 30 31 37 32 35 37 43 45 45 45 45 44 40 36 36 35 34 31 29 30 28 27 23 21 20 19 20
88 84 82 79 76 73 69 67 65 63 63 59 56 54 50 51 51 53 48 45 44 40 37 39 40 37 33 34 32 37 38 36 38 40 49 49 49 48 47 43 41 39 36 36 34 32 32 23 22 20 20 19 19 19
85 82 78 75 72 70 67 65 62 60 61 57 54 53 51 50 50 52 47 46 45 40 37 37 33 30 31 33 36 38 39 41 39 40 46 52 52 52 50 46 46 44 40 36 33 35 35 28 30 29 26 26 26 24
79 75 73 71 68 67 66 63 60 58 58 55 53 52 50 49 49 50 47 47 43 38 35 33 29 24 24 27 33 35 37 44 41 41 42 50 55 56 54 49 50 48 43 39 36 33 36 34 33 31 29 27 27 24
73 70 70 71 68 64 61 59 56 55 55 54 51 50 48 48 50 48 45 49 44 37 34 28 21 19 18 21 28 31 37 41 43 43 42 46 57 61 57 55 52 51 47 43 40 36 35 38 35 31 27 26 26 25
72 70 69 66 64 61 59 54 52 52 53 52 49 48 46 49 47 46 45 45 45 40 35 25 19 17 13 15 20 24 29 35 39 41 43 46 57 63 57 55 56 54 50 47 44 39 37 38 38 35 31 30 30 30
71 67 66 62 60 58 56 54 51 49 51 48 48 45 47 45 47 46 43 42 39 36 31 24 19 16 13 12 16 20 24 26 30 35 38 44 53 60 56 55 56 55 52 49 46 42 38 40 39 35 33 33 32 31
69 65 62 60 56 54 52 49 50 50 48 48 48 44 46 46 46 44 39 38 37 33 27 22 18 16 13 11 14 17 20 22 25 28 33 40 46 58 58 55 54 52 50 46 43 41 41 42 41 38 37 36 34 32
63 60 58 56 53 49 47 46 46 46 48 48 47 47 44 44 44 41 37 34 33 28 24 21 18 16 13 11 13 15 17 21 24 28 31 34 40 52 58 57 56 52 49 46 43 44 43 43 43 43 40 39 36 32
62 57 55 53 49 45 44 43 43 45 47 48 47 47 44 43 41 39 34 31 30 27 21 19 18 15 13 12 14 18 20 22 25 28 30 33 37 45 57 60 60 57 52 48 47 47 45 45 45 43 43 42 37 33
56 54 52 50 46 44 43 41 43 45 45 47 46 46 46 40 37 38 34 29 29 26 21 19 17 16 13 13 14 18 23 23 24 26 27 29 33 39 48 59 61 59 57 55 53 52 50 50 48 47 46 43 39 36
52 52 47 47 44 43 42 42 42 43 43 44 45 47 45 39 36 36 33 29 28 27 21 21 19 17 16 14 13 15 19 21 20 21 23 25 29 33 40 49 59 63 64 60 58 57 55 54 53 50 48 46 45 42
51 48 45 45 44 43 43 42 40 41 42 44 45 44 44 38 36 36 34 30 29 28 22 21 22 17 18 18 15 11 11 13 18 21 22 22 24 28 34 41 49 56 62 65 65 65 63 60 59 59 56 53 51 49
49 44 45 45 43 42 41 39 39 40 41 43 44 41 39 37 36 34 34 30 27 29 25 22 23 22 20 21 14 11 13 13 18 20 23 27 27 27 30 34 40 46 53 59 63 65 67 66 65 64 62 60 55 52
48 46 46 45 43 40 39 41 39 40 40 41 40 37 36 36 35 35 33 29 28 28 25 24 26 26 22 20 20 20 18 17 17 19 22 24 27 31 33 35 37 42 46 50 54 59 62 63 62 60 60 59 57 52
49 46 46 45 42 40 40 41 39 40 38 39 38 37 36 35 34 34 30 28 29 28 28 28 26 25 27 24 22 22 22 22 21 21 21 22 25 29 32 34 37 40 43 48 52 54 57 59 60 59 58 57 56 56
50 45 45 45 41 39 41 40 39 40 39 39 38 35 35 34 33 32 29 29 32 33 30 27 26 28 26 26 27 26 24 23 23 23 24 25 26 26 28 32 34 36 40 46 48 52 58 59 61 61 61 60 59 59
49 46 45 44 41 39 42 42 40 40 40 39 37 35 36 35 33 31 29 31 33 33 30 26 27 30 28 27 28 28 27 25 25 24 25 26 28 31 31 31 31 32 36 40 43 46 49 53 57 61 63 63 63 63
50 45 44 43 40 39 43 43 42 40 40 38 38 36 36 34 33 30 31 33 35 32 29 29 30 32 30 29 29 30 30 28 28 28 27 26 27 29 31 33 36 37 38 38 39 41 45 48 52 56 58 61 64 65
48 43 42 40 37 41 46 45 43 41 40 39 38 36 35 34 32 33 35 35 32 32 31 31 33 33 32 30 30 31 31 31 31 30 31 30 29 29 31 32 35 37 40 41 43 45 44 42 44 48 52 56 58 60
44 37 36 39 44 46 47 45 42 41 39 37 38 37 35 34 35 35 35 32 33 34 33 34 33 31 31 31 32 32 32 32 33 31 31 34 34 32 31 33 34 35 37 42 46 46 47 47 46 45 45 47 50 54
36 31 36 44 47 47 47 44 40 39 39 38 39 36 34 35 36 37 33 34 35 34 34 35 33 32 33 32 31 32 33 34 34 33 32 36 37 36 35 36 37 36 37 41 44 47 48 48 48 48 46 43 44 46
28 33 44 50 50 48 45 42 38 39 40 39 38 37 35 36 36 35 34 34 34 34 35 34 33 34 34 32 32 33 33 33 35 36 37 37 37 38 40 41 42 40 40 40 43 46 48 47 46 47 48 48 47 45
32 42 49 49 47 44 42 39 39 40 40 38 36 36 35 36 36 36 36 34 34 35 35 35 35 34 33 31 31 32 34 35 36 38 39 39 39 39 40 43 44 43 43 43 43 43 45 47 47 46 46 47 48 48
37 48 46 44 43 39 39 40 40 39 37 35 35 35 37 36 36 36 35 35 36 36 35 34 34 34 32 31 32 34 35 36 38 38 40 41 42 41 41 41 42 44 46 46 44 42 41 43 45 46 47 47 48 48
40 40 40 39 37 38 39 38 38 34 34 34 34 37 37 35 35 35 36 35 35 36 35 33 33 32 32 32 33 34 35 37 36 38 42 45 44 43 41 40 41 43 44 44 42 40 41 42 43 44 44 45 45 44
37 34 34 30 33 34 36 35 33 33 34 34 35 35 34 35 35 35 35 35 35 34 33 32 32 32 33 33 34 34 33 36 39 41 42 43 44 43 41 39 39 39 39 40 42 42 42 45 45 44 45 45 44 45
32 33 30 30 33 32 31 31 33 33 32 33 34 33 34 35 35 35 34 34 34 32 32 32 32 33 33 32 33 34 36 37 39 39 40 41 41 40 41 41 42 42 40 39 40 40 41 42 44 45 46 45 45 45
35 33 31 30 27 29 34 35 33 33 33 35 34 34 34 35 35 34 32 32 32 31 31 32 31 31 31 32 35 36 37 37 37 37 37 37 38 40 42 40 39 38 37 37 37 37 37 38 38 39 39 39 40 41

GFSWCAN_250_spd_027.txt.gz
Wind_Speed
98 100 98 98 92 86 79 77 79 76 74 70 66 60 56 52 49 46 44 40 36 32 32 26 23 20 21 25 24 20 19 21 23 22 19 17 18 20 20 19 20 21 22 24 26 25 25 26 25 27 27 26 25 26
98 98 93 89 84 79 75 74 74 73 72 67 63 60 56 51 48 46 43 39 37 34 30 27 24 23 22 21 24 25 27 22 20 26 26 23 23 24 25 24 24 25 27 29 31 29 29 27 28 28 28 26 26 27
96 90 86 79 76 72 72 73 70 70 64 61 61 60 56 50 48 46 42 38 37 36 31 24 23 26 26 24 23 28 32 32 28 26 29 29 28 29 29 27 26 28 31 34 33 31 32 32 33 31 29 28 24 25
99 86 83 76 77 72 70 71 67 64 61 59 59 58 57 51 47 45 40 37 38 36 34 30 28 26 27 28 27 31 34 33 36 32 29 32 32 33 33 30 28 27 30 32 35 37 35 34 33 30 27 25 26 27
98 90 82 79 78 75 73 71 67 64 62 59 57 55 55 50 47 42 40 39 36 33 32 32 31 30 30 32 33 33 36 36 37 36 32 34 35 34 36 35 32 28 29 29 30 36 36 33 32 32 30 29 29 29
110 92 87 84 82 79 77 73 69 66 62 59 56 52 51 47 45 39 37 37 37 35 31 32 30 30 31 34 36 39 38 34 37 36 36 36 39 36 38 42 36 32 31 32 35 37 33 32 32 33 30 29 27 27
114 97 90 88 83 83 78 73 69 63 62 54 48 47 47 44 41 39 37 36 36 36 35 31 32 33 32 34 36 35 32 35 34 34 38 38 37 39 41 46 43 36 36 39 40 39 35 33 33 33 28 29 29 28
122 106 96 88 81 78 76 73 66 64 57 47 45 43 44 43 39 40 37 36 35 39 36 31 30 30 31 30 32 30 27 28 31 29 38 38 37 41 44 46 47 44 42 43 44 41 38 35 32 34 33 31 31 32
116 106 100 92 81 75 73 70 67 57 52 48 44 42 43 41 39 40 38 35 36 38 36 30 29 27 26 26 26 24 23 25 28 34 33 35 40 43 48 42 49 51 48 46 48 45 40 38 37 35 37 36 35 34
111 106 100 93 85 77 70 66 61 56 51 47 44 42 41 39 37 38 37 36 38 36 31 28 28 26 24 23 22 18 17 17 20 28 36 40 41 44 46 43 47 54 52 49 50 50 44 40 39 39 38 39 38 37
108 104 99 93 84 76 69 63 57 51 47 45 44 40 41 39 36 38 37 38 35 33 29 27 25 23 21 22 18 14 14 15 19 24 32 38 42 38 37 43 46 50 56 53 52 54 51 46 43 42 41 39 36 34
109 102 95 91 84 76 67 59 52 48 46 43 44 42 40 38 37 36 36 38 32 30 28 25 26 21 19 18 15 13 12 15 20 24 32 39 40 41 43 44 47 48 54 58 54 54 55 53 49 46 45 44 41 39
105 99 90 88 82 74 65 54 49 46 44 42 45 42 40 39 39 34 35 37 31 29 27 23 20 23 20 17 15 13 12 13 19 25 29 28 32 39 39 41 44 48 48 55 59 56 55 55 53 53 51 50 49 45
103 96 88 83 78 71 61 51 43 43 43 43 43 44 43 42 40 38 34 34 32 28 25 23 20 19 20 20 17 15 12 12 15 19 23 26 29 32 36 40 43 47 50 46 53 59 59 56 55 56 55 55 53 48
100 93 83 80 74 65 58 50 43 41 43 43 42 44 45 43 40 40 35 34 32 29 26 23 21 20 20 19 17 17 14 13 13 15 17 19 22 25 29 32 36 42 46 49 48 52 62 60 60 60 58 56 52 53
92 85 77 70 69 63 56 50 44 41 42 44 44 43 45 46 42 40 37 34 30 29 27 24 22 22 21 22 20 17 16 13 16 18 18 19 20 22 25 27 29 32 36 43 48 52 54 62 64 64 63 61 58 56
85 77 70 64 61 59 53 48 45 43 42 43 43 43 46 45 43 40 37 33 30 30 29 26 24 23 25 24 23 20 16 16 18 19 21 21 21 21 22 25 29 31 33 36 39 46 51 57 64 64 64 63 61 60
76 68 63 60 57 55 54 46 42 43 43 43 42 43 44 44 42 39 36 34 33 32 29 26 27 25 26 29 22 17 18 20 20 21 22 23 23 23 24 25 26 29 31 34 37 41 46 53 61 65 65 64 62 60
71 60 61 60 54 49 49 45 39 43 44 41 43 43 43 43 41 36 36 35 32 31 30 26 28 32 32 27 19 20 23 25 23 22 22 21 22 24 24 24 24 26 29 32 35 38 43 48 55 61 65 66 66 65
66 61 58 57 50 46 43 43 39 41 43 39 42 43 42 42 39 37 36 34 33 33 32 33 38 37 24 21 22 26 28 26 24 23 23 23 21 21 21 21 22 23 23 24 28 32 37 41 45 50 56 62 66 68
62 59 53 53 48 43 35 39 37 38 40 39 40 42 41 41 38 36 35 35 36 36 34 34 31 21 23 26 28 32 30 27 27 25 24 24 25 25 24 24 23 24 24 25 26 28 30 31 34 38 42 46 51 56
56 55 52 48 43 35 32 39 36 38 38 39 39 40 40 40 38 36 36 39 37 33 33 31 27 28 31 33 32 32 29 28 27 27 26 26 25 25 25 26 26 27 28 28 28 28 29 30 32 35 38 39 41 42
52 50 46 39 36 33 35 39 38 39 38 37 37 39 40 39 38 38 38 37 36 34 36 33 31 31 33 34 33 30 29 29 29 28 27 27 28 28 29 28 28 28 29 29 29 30 31 33 34 34 36 36 36 38
44 41 38 33 35 37 39 39 38 38 37 37 35 38 40 39 39 39 37 36 35 37 36 32 31 32 34 34 29 28 29 30 29 28 30 30 30 32 32 33 33 33 34 34 35 34 35 36 36 37 38 38 39 39
38 35 33 36 39 40 42 40 37 38 37 34 34 38 40 39 40 39 36 36 35 35 35 32 33 35 35 32 31 32 32 32 33 33 32 32 34 34 34 36 36 36 38 39 39 40 41 41 41 41 40 41 42 42
36 34 38 43 44 44 44 37 37 36 33 32 36 37 38 40 40 37 35 35 36 35 34 34 34 35 35 34 33 32 32 33 34 32 33 35 34 35 35 36 37 37 40 42 43 43 43 43 42 42 43 44 45 46
38 41 43 45 45 43 37 33 32 31 31 33 37 37 38 40 38 36 35 35 35 34 33 34 35 35 36 35 34 33 33 34 34 32 33 35 36 36 37 37 38 38 41 44 45 46 45 44 44 45 46 46 45 45
40 40 42 42 42 38 32 28 29 31 30 34 36 35 37 38 35 35 34 34 33 33 32 33 34 35 35 35 35 34 34 34 34 33 32 34 33 36 38 38 38 41 43 44 45 46 46 46 47 46 45 45 45 43
38 39 37 36 35 29 28 29 29 28 27 31 30 33 36 33 32 34 33 32 32 32 32 32 34 34 34 34 35 34 34 35 35 35 34 33 32 35 38 39 40 42 43 44 44 45 45 44 43 43 43 44 45 43
35 34 32 29 27 27 26 22 22 22 26 29 30 33 32 30 32 33 32 32 31 32 32 31 32 33 34 34 34 34 34 34 35 35 35 35 35 36 37 39 40 42 43 45 45 43 42 42 42 42 42 44 44 43
24 24 27 27 28 24 19 18 17 21 26 29 30 32 30 29 33 34 31 31 31 31 32 33 33 32 32 32 31 31 32 34 34 35 36 36 37 37 38 39 40 41 41 41 42 42 42 42 42 43 44 43 42 42
21 21 21 22 20 15 17 21 21 23 26 28 30 30 29 31 33 32 28 28 29 31 32 31 30 30 29 28 29 29 31 33 34 35 36 37 37 37 38 38 38 38 38 38 39 41 41 41 41 41 42 43 44 45
25 28 27 25 24 22 22 23 25 26 28 29 29 28 29 31 30 27 25 29 32 30 27 27 27 27 27 27 27 28 29 30 33 35 36 36 36 36 35 35 35 35 36 37 38 40 41 42 42 43 43 43 43 43

GFSWCAN_250_spd_030.txt.gz
Wind_Speed
106 101 101 103 103 100 95 87 81 71 68 65 64 59 58 56 54 52 48 45 40 40 39 35 29 24 19 24 24 22 21 18 18 16 15 17 20 19 19 18 18 18 19 20 23 23 27 33 36 38 38 38 38 37
112 105 101 105 100 92 91 84 77 72 69 65 64 60 59 57 55 51 48 45 41 39 39 36 31 27 22 24 25 26 26 22 20 20 21 18 24 26 25 25 24 23 23 23 22 25 27 27 30 37 40 39 38 37
118 109 101 99 94 86 82 82 78 72 70 67 63 60 59 55 53 50 47 43 39 39 39 35 31 28 27 27 25 29 29 28 26 25 24 25 25 29 34 33 30 29 28 28 27 26 28 29 30 30 32 34 35 36
127 122 105 95 91 87 85 82 78 75 69 69 63 60 58 54 50 49 45 41 38 39 38 32 31 31 32 29 28 31 31 30 30 30 29 28 30 31 32 38 37 36 33 31 32 30 30 31 30 31 33 35 35 36
135 142 127 98 90 84 88 81 78 76 74 70 64 60 58 51 45 41 43 39 36 39 36 33 33 30 31 32 32 33 34 34 34 33 31 34 33 34 35 35 44 43 40 37 33 34 36 34 36 38 34 37 40 38
140 141 133 133 92 87 86 81 81 79 74 69 65 59 55 48 42 39 42 38 36 37 39 32 31 31 33 31 31 34 37 36 36 38 36 36 38 37 35 40 42 46 45 41 35 33 36 40 41 41 36 38 39 37
144 139 141 133 117 92 91 85 83 79 73 69 65 60 54 49 42 38 39 38 36 37 33 31 34 33 32 33 35 35 35 38 36 33 39 36 44 39 38 45 40 43 48 45 38 32 34 39 42 41 39 38 37 35
142 139 138 135 120 99 95 86 83 79 76 69 62 59 56 49 42 38 39 38 35 32 32 33 36 34 30 34 34 35 36 35 34 33 39 38 42 42 45 47 41 42 47 48 42 33 33 36 39 40 40 38 37 36
142 139 138 131 116 106 99 91 84 80 74 68 61 55 53 48 43 39 38 37 36 31 34 33 35 33 28 32 32 32 33 30 27 29 35 38 43 45 48 43 41 45 45 49 45 39 39 40 41 41 40 39 38 37
135 133 134 126 114 106 100 94 85 77 73 66 61 56 52 46 43 39 38 35 35 32 34 34 32 31 29 30 27 27 26 24 23 27 33 37 40 46 42 39 41 45 45 49 49 45 44 45 45 43 41 40 41 39
129 127 128 124 109 107 100 96 84 76 70 63 56 53 50 46 41 40 37 35 33 33 35 32 30 29 26 26 25 22 21 19 20 22 25 32 38 39 38 39 41 44 46 46 53 51 48 49 49 47 44 42 41 41
124 120 125 122 112 105 98 93 85 74 66 59 53 50 46 43 41 39 36 35 31 33 34 32 29 26 24 23 22 20 19 16 18 21 25 27 31 35 36 35 38 41 45 46 49 54 52 51 52 51 48 46 44 43
123 121 121 116 111 103 93 85 83 72 63 53 48 46 42 42 41 40 37 35 32 33 32 29 28 27 23 21 20 20 18 16 17 20 22 26 30 34 39 41 41 42 44 46 47 50 55 54 54 54 52 51 48 46
119 118 115 111 105 99 88 80 77 69 58 51 46 43 42 42 41 41 37 34 33 34 32 28 27 26 25 22 18 18 18 16 15 16 20 25 31 35 38 40 42 42 43 43 46 48 50 57 56 56 57 57 55 52
112 112 109 106 100 92 83 73 70 64 53 47 44 41 42 41 42 41 39 34 32 34 32 28 28 25 25 25 21 19 18 15 16 18 17 18 21 25 30 35 38 38 37 40 44 47 50 51 58 59 58 59 59 57
108 106 104 100 94 85 72 68 65 60 50 46 44 43 43 42 43 42 40 36 33 33 33 30 28 26 26 26 24 22 20 19 18 17 18 18 20 22 24 26 29 32 35 39 43 45 48 51 51 59 60 61 61 61
102 101 99 91 86 76 68 63 63 55 49 48 46 44 43 43 43 43 41 38 36 35 34 31 31 29 29 27 28 24 23 21 19 19 19 18 18 18 18 20 21 24 27 31 36 42 46 49 52 52 57 64 65 64
96 94 89 82 78 70 62 60 60 53 51 47 45 43 43 44 44 44 42 40 39 38 35 34 33 33 30 33 33 26 23 21 23 23 22 20 19 19 19 19 19 19 21 25 29 32 38 44 50 54 55 56 60 66
88 85 81 75 68 64 59 55 58 54 52 46 44 42 44 45 45 45 42 41 41 40 36 35 33 35 37 38 30 25 22 23 27 27 25 23 20 20 19 19 20 20 19 19 23 27 32 35 39 44 49 55 59 60
78 75 71 67 63 58 55 51 55 54 51 44 42 42 45 46 45 45 42 41 43 40 36 35 36 36 33 32 29 25 26 26 30 30 27 25 22 21 22 21 20 21 21 20 21 21 23 25 30 34 37 40 45 50
68 68 66 63 60 56 52 51 52 53 47 44 43 43 44 45 43 43 41 40 40 38 37 36 36 35 34 35 34 32 32 33 32 31 28 26 26 25 25 24 24 23 22 22 22 23 25 27 27 28 30 32 35 40
64 61 58 56 55 54 47 49 52 49 43 44 42 41 41 43 41 41 40 39 37 38 39 36 35 33 36 38 37 37 38 38 32 27 28 30 29 28 28 27 27 27 26 25 25 25 25 25 25 27 29 32 34 36
58 55 52 51 50 46 46 51 48 44 40 43 41 39 39 41 40 41 39 35 37 37 37 35 34 34 38 39 39 38 36 34 29 29 32 30 30 31 31 30 30 29 28 27 27 27 28 28 29 30 31 32 32 33
50 51 51 47 45 46 47 46 46 42 40 41 39 36 39 42 40 41 37 34 37 36 36 35 35 36 38 38 36 36 36 35 34 32 30 31 34 34 33 33 34 33 33 33 32 32 33 34 33 34 34 34 34 35
52 47 45 44 47 47 47 46 42 39 39 37 35 35 40 42 39 38 36 36 35 35 35 34 34 35 36 36 36 38 38 36 34 34 34 34 34 34 34 34 35 34 35 34 35 37 38 38 39 39 39 40 40 39
46 46 46 47 45 43 43 42 39 38 34 31 33 36 39 39 38 35 36 35 34 34 34 34 34 35 37 36 37 37 37 36 35 36 37 36 35 33 32 34 35 35 37 36 37 38 39 40 42 43 44 44 45 44
46 45 44 42 40 39 40 39 37 34 32 31 34 36 40 39 36 34 35 34 33 34 35 34 33 34 36 37 36 35 35 35 34 34 35 34 33 34 34 36 35 34 36 37 39 39 39 40 42 44 45 44 44 44
42 38 38 37 36 37 36 34 32 30 29 30 34 36 37 36 32 33 35 34 33 34 35 34 34 34 35 35 35 34 34 34 34 33 33 33 33 33 34 35 36 37 38 38 40 41 42 42 43 43 44 44 43 43
36 34 34 34 33 31 32 29 26 24 23 28 34 36 36 33 32 33 33 32 33 34 35 34 33 33 34 35 34 34 33 34 34 32 32 31 31 33 35 36 37 38 39 40 40 41 41 42 42 41 42 42 42 40
27 27 26 26 26 26 23 21 20 21 24 31 34 34 34 32 30 34 33 32 33 34 34 33 32 34 35 35 35 35 34 33 33 32 32 30 31 32 35 37 38 39 41 41 40 39 40 41 40 39 40 40 41 41
17 17 17 19 22 19 16 18 20 24 27 30 31 32 31 27 31 33 32 30 31 32 32 33 33 33 34 34 34 34 33 32 32 32 32 32 33 34 35 36 38 41 42 41 39 38 38 39 40 41 41 40 40 41
28 30 30 30 28 25 26 26 25 28 30 31 31 29 28 28 31 32 29 29 31 32 33 32 29 30 31 32 32 31 32 33 32 32 33 33 33 33 34 34 35 36 36 36 38 39 39 40 40 39 41 41 42 42
28 31 31 28 24 26 25 26 29 30 32 32 31 29 28 29 31 33 28 30 32 33 31 29 29 31 31 30 30 30 31 31 31 32 32 33 33 33 32 32 32 33 34 36 37 38 38 39 39 40 41 41 41 41

GFSWCAN_250_spd_033.txt.gz
Wind_Speed
110 111 107 104 102 96 99 98 97 91 96 85 76 72 64 58 54 55 52 48 47 47 42 38 39 36 27 26 27 28 27 22 20 20 20 20 24 24 22 20 20 20 19 20 22 26 26 28 29 34 42 42 43 44
113 115 113 111 102 99 97 95 94 96 91 84 74 70 69 60 56 55 50 48 46 47 43 38 39 38 32 28 28 29 30 26 25 23 21 20 23 26 27 27 25 24 24 24 24 24 28 33 35 36 37 39 40 39
117 122 121 116 106 96 98 93 98 96 89 80 77 71 68 62 58 56 51 48 46 46 42 36 37 37 35 31 30 31 31 28 28 30 28 27 26 28 30 34 32 31 30 29 27 27 27 30 34 39 41 41 41 43
121 123 122 122 113 94 95 96 97 95 84 81 79 76 70 62 58 57 51 48 45 43 39 35 36 38 34 33 32 32 33 34 32 32 33 33 34 33 32 35 37 37 36 35 32 30 29 31 31 32 37 43 46 46
125 124 124 126 129 121 101 97 97 93 85 78 80 76 69 63 60 56 53 47 44 42 38 34 36 34 34 33 34 35 37 37 38 37 35 37 39 39 37 34 37 42 42 41 38 35 34 32 33 35 34 35 39 44
126 127 127 126 130 127 127 105 95 96 88 78 81 77 73 66 63 57 53 47 43 40 38 33 34 35 34 34 35 37 39 40 41 41 40 40 43 42 39 38 43 42 44 46 44 39 38 37 36 36 34 34 34 35
131 130 129 128 130 132 134 126 101 100 94 82 80 78 73 68 63 57 51 47 44 39 35 32 33 32 32 34 36 39 40 41 43 43 43 43 45 42 39 41 50 40 42 47 49 44 42 41 40 40 39 40 40 38
133 131 130 128 131 131 129 129 116 105 99 88 86 81 74 68 63 55 49 43 42 41 37 32 32 34 33 34 37 37 38 41 41 39 39 43 46 39 33 50 51 43 42 45 48 50 47 45 44 44 45 46 44 44
132 132 132 132 129 130 130 131 119 108 99 91 86 80 74 67 62 55 49 42 41 40 35 33 33 35 34 35 33 37 34 36 36 35 34 36 41 36 40 54 49 44 44 44 45 47 51 48 46 46 45 48 48 47
135 134 134 133 131 130 128 131 118 110 100 94 88 80 71 65 58 52 47 40 40 39 35 33 34 36 35 33 33 34 33 32 31 31 31 34 37 39 40 47 48 46 46 44 44 46 48 50 47 46 46 46 48 47
137 136 135 132 129 130 130 122 114 110 100 92 89 79 68 62 55 48 45 40 39 37 35 32 34 34 34 32 32 32 32 30 28 26 25 27 30 36 40 43 43 44 42 42 45 47 45 49 48 48 46 43 45 46
135 136 134 134 133 124 123 117 112 108 104 93 86 74 64 58 52 46 43 40 40 38 34 32 34 34 33 30 31 30 29 27 24 22 21 21 22 27 32 39 42 42 42 42 44 47 44 46 49 49 49 47 45 46
138 137 138 135 132 127 119 114 109 105 100 92 84 72 62 56 50 44 40 40 40 37 35 32 33 33 32 30 27 28 26 24 21 19 20 22 23 27 30 33 37 39 40 39 41 44 45 44 47 50 52 52 51 51
136 138 139 136 129 124 117 113 108 99 94 84 79 68 59 54 48 42 40 40 41 37 34 33 34 33 32 31 26 25 26 22 20 19 19 21 23 25 30 33 35 37 38 39 39 41 46 46 46 49 51 54 56 56
136 132 132 129 123 119 112 110 103 95 87 76 75 66 58 50 47 42 40 42 41 38 35 34 36 34 33 33 29 25 26 25 21 20 19 19 22 25 28 30 33 37 39 40 40 42 43 46 46 45 48 54 56 59
136 132 127 124 120 116 110 104 97 88 82 73 73 65 57 49 45 43 42 42 42 39 37 36 39 36 34 33 30 28 28 27 23 22 21 19 21 23 26 29 31 33 35 37 38 40 41 45 45 46 48 50 57 58
131 128 125 121 116 110 104 99 90 82 77 70 67 64 57 52 45 43 43 43 43 40 39 38 39 39 35 34 32 33 34 30 26 22 21 21 21 23 23 24 25 27 28 29 31 34 37 40 44 46 47 50 53 57
125 121 115 112 107 101 95 91 83 77 71 69 68 63 55 50 47 45 45 44 44 41 39 40 39 40 37 36 37 39 34 30 29 26 25 24 23 23 22 23 24 23 24 25 27 29 31 34 40 44 47 49 51 53
111 109 107 102 97 93 86 80 76 71 69 70 68 64 53 44 47 48 45 45 44 43 39 39 40 40 38 38 40 40 37 33 30 29 29 27 25 24 22 22 21 22 22 23 24 26 29 32 34 37 43 47 50 52
101 100 97 91 88 83 79 73 67 68 66 66 65 62 54 42 42 50 47 45 44 43 39 39 41 41 38 39 41 41 37 37 34 34 33 31 28 26 25 23 23 22 22 23 24 24 24 27 29 32 36 39 42 45
93 93 91 84 80 76 70 65 66 66 65 64 68 62 53 43 41 49 49 46 45 41 39 41 40 39 39 40 41 40 38 38 37 38 40 37 32 29 27 26 26 26 25 23 24 25 27 28 29 30 32 35 37 39
87 84 80 75 72 68 62 66 66 64 64 64 64 56 49 46 44 47 51 46 43 37 40 39 37 38 40 42 41 40 38 39 39 38 41 39 32 29 30 30 29 28 26 25 25 24 24 24 25 27 28 30 32 33
76 75 70 71 69 64 60 65 65 65 63 58 57 48 46 45 45 46 47 44 39 37 38 36 36 37 40 41 40 40 37 38 40 41 41 37 33 33 32 30 30 28 27 27 27 28 28 28 28 29 29 30 31 31
73 71 66 63 63 60 57 61 64 62 55 50 47 41 42 44 42 42 46 41 36 37 36 35 35 38 40 41 39 38 37 39 40 41 40 35 35 37 34 32 31 31 31 31 32 32 32 32 31 31 31 31 32 32
66 63 59 56 54 55 59 59 55 50 43 41 39 36 42 41 39 43 45 37 36 35 34 34 36 38 39 39 38 37 37 38 39 41 40 38 39 39 36 35 35 34 34 34 34 34 35 35 34 34 34 35 36 36
61 58 55 53 57 59 52 48 43 41 39 36 36 37 38 38 39 43 38 32 35 33 34 34 36 38 38 38 38 36 35 37 38 39 39 38 38 37 36 36 35 34 35 34 35 36 35 35 35 36 36 37 38 39
56 57 58 55 53 47 42 42 40 38 37 35 36 37 36 37 39 40 31 30 34 33 32 34 36 37 37 38 37 35 34 35 37 38 37 36 36 37 36 36 35 34 35 35 36 35 36 36 36 37 38 38 39 40
57 53 50 47 44 42 40 40 38 35 35 32 32 34 35 37 39 36 31 32 34 32 32 35 36 36 36 36 35 34 33 34 35 36 36 35 35 35 35 35 35 34 34 34 35 35 36 38 38 39 40 40 39 40
48 46 42 40 37 34 35 34 33 31 30 30 33 34 36 36 36 32 29 32 30 30 31 33 34 34 34 35 34 32 31 32 34 35 35 34 34 34 34 34 34 34 35 36 37 38 39 40 40 41 41 41 40 39
38 35 32 29 28 31 34 31 32 31 30 32 32 33 35 34 29 29 29 29 29 30 30 33 34 34 34 34 32 31 31 32 33 34 34 34 34 33 34 35 36 36 37 37 38 39 39 40 39 39 40 41 40 40
30 31 34 38 39 40 37 33 34 33 34 35 34 35 35 33 30 27 28 28 28 30 31 32 35 33 32 31 31 32 32 32 32 32 32 32 32 33 34 35 36 37 37 38 38 38 38 39 39 39 38 38 40 41
34 36 38 38 38 34 33 34 35 35 37 38 37 36 34 31 27 27 27 26 28 31 32 32 32 31 31 32 32 31 31 31 31 30 30 30 31 32 32 33 34 36 37 38 38 38 39 39 39 39 40 40 40 40
31 31 32 32 31 27 24 29 32 33 34 34 34 33 31 26 24 25 25 27 31 32 31 31 30 30 30 30 29 28 28 28 28 29 29 29 30 31 32 33 35 35 36 37 37 38 39 40 40 39 39 40 41 42

GFSWCAN_250_spd_036.txt.gz
Wind_Speed
100 103 103 104 105 105 104 105 103 103 100 93 97 93 87 80 71 71 66 57 53 50 43 40 40 37 33 29 27 26 28 22 21 21 22 22 23 23 22 20 19 19 19 21 24 24 22 25 27 30 34 32 33 33
104 107 108 110 109 109 109 106 105 105 97 98 94 91 86 77 76 70 63 56 54 48 43 38 36 35 30 29 29 26 27 26 26 23 23 24 24 26 24 24 22 23 22 22 23 26 28 27 26 30 33 37 37 38
107 109 113 113 113 113 113 106 108 105 102 102 98 91 87 74 71 72 64 56 52 47 43 38 35 31 30 29 29 27 27 29 28 30 28 26 28 28 28 28 27 28 28 28 26 27 27 29 33 32 32 34 40 44
111 113 116 116 117 118 115 113 109 103 101 101 99 95 86 73 72 71 63 55 52 46 41 35 34 32 29 28 28 27 25 29 31 31 33 32 33 33 31 30 31 32 33 33 32 31 30 30 30 32 37 38 37 39
113 116 118 119 121 122 122 120 108 104 102 102 99 97 81 75 74 75 66 57 54 49 43 36 33 31 28 29 28 27 27 30 34 36 35 36 38 40 39 35 35 36 38 36 36 36 35 34 34 33 32 34 40 42
116 118 120 121 122 123 124 125 124 121 110 107 105 98 86 74 74 72 65 60 54 49 44 38 34 31 29 29 29 27 30 32 35 36 38 38 45 43 43 43 43 40 39 39 39 40 40 41 39 37 35 36 35 34
118 120 122 126 126 124 126 127 128 127 123 117 109 100 88 82 77 72 68 61 54 49 44 39 35 33 30 31 29 30 32 35 36 38 41 43 46 38 39 42 51 45 42 39 41 43 43 45 44 41 40 38 38 37
121 122 125 126 129 128 128 128 130 131 129 122 112 102 90 84 78 74 70 62 54 48 44 40 36 33 32 31 32 33 33 37 37 36 37 39 44 32 26 45 48 50 46 43 42 43 44 47 49 46 44 42 41 40
124 123 126 128 131 129 129 130 133 131 131 128 118 102 94 89 83 79 72 62 53 46 42 40 36 32 32 32 35 35 37 39 35 35 35 35 38 33 36 44 42 49 47 41 45 44 44 46 49 49 47 47 43 42
125 127 129 134 134 134 135 133 132 134 133 129 120 104 97 90 83 78 73 61 53 46 42 40 39 34 32 33 35 37 37 36 35 35 31 30 31 31 32 38 42 42 44 45 46 46 46 46 47 50 51 50 48 44
130 129 132 135 135 138 135 137 135 133 130 128 123 112 97 90 88 80 70 61 52 46 43 41 39 35 34 35 38 36 34 33 33 32 28 28 27 28 30 33 37 41 46 48 46 47 48 49 45 48 52 53 51 48
132 130 134 138 136 140 138 138 135 132 129 126 123 114 101 98 92 79 70 61 51 44 43 42 38 36 35 35 38 36 32 32 30 31 28 25 24 25 26 28 33 42 46 46 45 45 46 46 46 47 49 51 51 49
137 135 136 139 140 137 141 140 136 134 131 126 120 113 104 107 95 72 66 57 50 42 41 41 38 37 34 36 37 36 31 30 29 29 27 24 22 22 23 26 29 34 39 41 41 40 41 42 41 43 45 46 49 50
138 135 138 141 138 141 139 140 135 135 133 125 118 114 114 106 93 68 59 56 48 42 41 41 39 38 35 36 37 36 32 30 29 27 27 24 21 21 21 24 28 32 35 39 41 41 40 39 38 39 42 44 45 50
136 137 139 140 139 141 140 137 134 134 129 123 115 112 111 96 85 71 58 48 46 43 42 40 40 39 36 35 37 36 35 32 32 30 26 25 23 22 21 22 25 29 33 34 35 35 36 37 37 39 41 43 45 47
139 140 140 142 141 142 139 136 135 131 125 121 116 107 95 84 73 68 61 48 44 44 43 42 40 40 37 36 38 37 38 36 33 30 28 26 25 23 22 22 23 25 27 29 32 33 35 37 38 39 42 43 44 46
141 142 143 141 142 138 136 136 132 127 126 121 114 98 89 76 67 63 57 52 44 41 42 42 41 41 39 37 39 39 40 40 32 29 30 29 28 25 24 24 23 25 27 28 30 31 32 35 37 40 41 42 44 45
142 142 141 140 138 134 134 130 131 122 119 113 104 94 80 69 62 56 55 51 49 42 39 40 41 42 39 40 40 39 41 42 38 33 32 33 32 28 26 26 25 25 25 26 27 27 28 29 31 35 39 43 45 45
137 138 138 137 133 130 130 131 124 113 107 101 97 89 79 67 58 54 54 52 53 51 43 39 39 42 39 40 39 41 44 45 41 36 34 35 36 34 30 28 27 27 27 27 26 26 27 27 28 29 33 36 40 44
131 131 131 131 127 127 121 115 105 100 97 94 91 82 75 68 61 58 53 50 51 55 54 39 40 42 40 38 41 43 44 45 42 39 37 36 37 37 36 32 29 28 28 26 27 29 28 27 27 28 29 31 34 37
131 130 124 121 117 111 107 101 93 92 93 88 81 75 71 66 63 60 56 53 47 51 53 42 41 40 39 39 40 43 44 44 42 42 38 38 39 39 38 34 32 30 29 28 28 28 29 31 30 28 30 32 33 35
118 115 111 107 105 100 90 90 92 91 81 76 74 72 68 64 65 64 59 57 52 49 46 44 41 40 37 37 39 42 41 43 43 43 40 38 40 42 40 36 32 30 29 29 29 29 28 28 28 29 29 30 30 31
110 107 103 98 93 88 88 89 87 81 77 72 70 68 63 63 62 59 57 57 52 42 41 41 36 35 34 34 38 39 40 42 43 42 38 37 39 41 41 37 32 33 34 32 29 27 27 28 28 29 28 28 29 29
101 98 95 89 89 86 82 79 75 71 67 66 61 57 58 57 54 54 55 51 42 39 41 33 31 31 31 33 36 37 39 40 40 39 37 38 40 40 40 39 35 35 35 33 32 30 30 30 31 29 29 30 30 31
91 89 86 80 78 78 77 74 71 66 62 59 55 54 51 50 51 51 53 44 39 39 35 30 31 29 29 33 35 35 37 38 37 35 36 40 41 40 39 38 37 36 35 34 32 33 32 32 31 30 30 32 33 33
79 72 70 72 74 71 68 67 64 60 56 54 52 50 47 46 47 49 45 38 37 34 29 28 29 28 30 34 34 33 36 36 35 34 36 39 39 38 36 36 37 35 34 34 33 34 34 32 31 31 31 31 32 33
68 70 73 74 70 65 62 59 55 51 50 50 47 43 43 44 47 43 38 36 33 29 28 28 27 25 29 33 32 33 34 34 34 34 35 38 37 35 35 35 35 34 34 34 33 33 33 32 33 33 33 34 34 35
64 66 65 64 62 60 56 52 49 47 45 41 41 44 43 41 42 37 35 32 32 31 28 26 24 25 29 32 31 31 33 33 32 32 34 35 35 33 33 34 35 35 34 33 32 33 33 33 32 33 34 35 36 37
57 56 57 55 55 51 49 46 43 44 44 43 41 40 40 39 35 34 34 33 30 25 23 23 23 26 28 30 30 31 32 31 30 31 33 33 33 32 34 34 34 33 33 34 34 33 34 34 35 36 36 37 37 37
48 47 44 43 42 44 47 44 46 45 43 41 39 40 41 36 34 38 36 32 25 22 22 26 26 28 28 28 28 30 29 28 28 30 31 33 32 31 32 32 32 32 33 33 34 34 35 36 35 36 37 37 38 38
39 40 40 41 44 44 42 41 40 38 38 39 39 39 39 37 38 36 32 27 24 25 27 28 27 26 27 26 27 30 30 29 28 29 30 30 30 30 30 30 30 31 32 33 33 33 34 35 36 36 37 39 39 40
41 42 41 39 37 34 34 35 36 37 35 35 33 34 34 35 35 33 27 23 23 28 29 27 25 26 25 25 27 29 28 27 27 27 27 27 28 28 29 29 29 30 31 31 32 33 34 35 36 37 38 39 40 40
38 36 33 33 35 35 33 33 33 31 31 30 28 29 28 27 23 22 20 20 23 27 27 23 22 23 24 25 26 27 26 25 24 24 25 25 25 26 27 28 28 29 30 30 31 33 34 36 37 37 38 38 39 39

GFSWCAN_250_spd_039.txt.gz
Wind_Speed
82 85 86 85 89 92 92 94 97 98 100 102 102 100 102 97 96 91 84 92 83 70 58 52 45 37 30 27 24 20 22 21 21 21 20 19 20 19 17 17 17 17 16 18 24 24 23 22 26 30 32 37 40 42
85 89 91 91 93 97 98 100 102 102 103 105 103 102 102 96 99 97 86 90 84 67 56 49 43 37 29 25 25 21 21 22 23 23 22 22 23 22 21 20 20 20 20 19 20 24 25 24 26 26 29 31 35 38
89 92 94 96 98 102 104 105 106 106 107 107 105 106 101 98 94 101 93 88 83 69 55 48 42 36 29 25 23 23 23 24 23 25 25 24 24 24 25 24 24 25 24 24 24 23 23 28 28 27 28 32 34 35
91 94 97 100 102 106 110 109 111 112 108 109 107 107 103 97 93 98 100 91 84 72 59 49 41 34 28 25 23 22 23 25 24 24 28 29 29 27 28 27 27 29 29 30 29 28 27 27 27 30 32 32 34 37
94 97 99 103 105 109 113 115 117 116 115 112 112 108 103 99 99 98 100 90 83 72 56 49 41 35 29 25 23 23 24 26 28 30 32 33 34 31 32 30 32 36 35 34 33 32 33 33 32 31 30 31 33 35
96 99 102 104 108 111 115 119 121 121 122 119 117 108 103 102 100 100 104 87 78 75 58 50 42 35 30 26 24 23 26 28 29 32 34 37 37 34 35 34 37 40 39 37 36 35 38 37 38 37 34 34 33 33
98 102 104 107 111 114 117 120 121 125 125 126 125 115 105 107 107 106 104 91 86 82 59 51 44 37 32 29 26 27 28 29 31 33 34 35 36 35 37 41 50 45 43 45 43 41 41 40 42 41 41 40 38 36
101 104 107 110 113 116 117 121 123 127 128 128 125 124 112 113 109 106 111 96 82 84 63 53 44 38 34 31 28 27 29 31 30 32 34 35 32 28 33 40 50 47 44 41 41 45 43 41 42 43 45 44 42 41
103 107 110 112 115 118 119 122 125 129 128 128 127 129 120 116 113 114 114 98 86 86 65 55 47 39 35 32 31 30 31 31 32 33 33 34 33 29 34 39 44 39 39 44 42 41 44 45 43 44 45 45 45 44
110 110 112 113 118 121 121 125 127 129 127 128 130 132 130 128 117 113 113 98 88 84 66 52 47 42 37 33 32 32 33 34 35 34 35 35 33 29 30 34 33 37 38 39 40 38 41 46 45 45 45 46 45 45
114 113 115 118 121 124 124 127 127 127 130 129 132 135 134 135 129 123 120 102 84 77 62 51 45 39 38 34 31 33 34 36 36 35 37 35 35 31 28 28 30 34 35 34 41 40 42 41 45 47 48 47 46 45
117 119 119 122 125 124 124 126 129 130 129 133 134 135 136 139 136 129 123 104 86 70 58 51 44 40 38 37 33 33 33 36 38 36 35 33 31 30 24 27 27 31 34 37 41 42 44 42 45 51 53 50 47 45
120 119 121 122 124 124 126 129 131 132 134 134 136 139 139 140 137 129 120 108 91 61 52 49 42 41 39 38 36 35 35 35 36 36 35 34 30 28 26 26 27 27 32 37 41 44 45 46 47 50 50 49 47 46
122 121 121 125 129 128 128 130 135 136 138 141 139 143 141 140 131 124 113 104 88 65 51 41 42 41 41 39 38 37 38 37 37 36 32 33 31 28 25 25 24 26 27 32 35 39 44 47 48 47 47 47 47 46
122 123 126 126 130 134 135 135 136 140 143 141 144 142 146 138 130 123 111 96 79 68 57 41 40 41 39 39 37 38 40 41 40 35 31 29 32 30 27 25 24 24 26 27 32 36 39 41 40 41 42 42 40 41
126 129 130 131 133 133 136 140 141 142 143 146 143 143 140 132 126 118 107 88 73 70 58 48 38 39 39 37 38 38 40 44 39 35 34 30 31 31 29 26 25 25 24 25 25 29 34 35 36 39 40 39 40 41
131 130 131 132 139 138 136 139 142 142 142 143 143 144 136 130 121 113 94 79 72 69 58 50 43 36 38 39 37 40 39 41 41 38 37 35 31 32 31 31 28 26 26 27 28 29 31 33 36 38 39 41 43 43
137 133 133 133 140 143 140 141 141 139 141 141 142 141 132 123 118 106 86 72 68 69 60 55 47 38 30 38 42 39 40 40 40 43 40 38 34 32 34 34 32 30 27 26 26 27 29 30 32 34 36 38 38 40
137 138 136 136 141 142 143 141 142 137 136 136 133 132 126 120 109 96 81 72 72 70 65 57 50 40 32 35 40 43 40 39 39 43 44 41 39 35 35 36 36 33 31 28 28 29 28 29 29 30 31 32 34 37
139 138 143 139 142 144 144 139 137 137 134 134 132 127 118 108 98 86 80 77 74 72 65 51 45 40 40 38 34 41 40 39 40 43 44 42 42 40 38 40 38 35 33 32 31 31 31 31 30 30 30 29 31 32
145 142 139 142 141 140 136 136 136 136 131 128 122 111 104 93 84 81 81 77 73 71 59 47 41 39 40 37 35 38 40 38 40 42 44 43 41 43 40 38 39 38 35 34 34 33 31 31 32 31 30 30 30 30
142 141 139 138 140 136 132 131 129 127 121 112 106 99 90 86 84 82 76 74 72 70 54 45 42 39 38 36 36 36 39 39 39 40 43 43 40 41 42 40 40 40 38 36 35 35 34 32 32 32 31 31 32 31
134 134 134 130 128 126 124 122 118 116 109 100 91 87 83 80 78 74 69 68 71 64 51 45 43 37 36 34 34 34 37 39 39 39 41 41 40 41 43 42 41 40 40 36 34 34 35 35 34 32 33 33 33 31
125 122 122 119 117 115 113 109 105 102 92 88 84 80 73 73 68 65 65 68 61 55 48 44 41 37 34 33 32 34 36 38 37 37 39 40 39 39 41 41 40 40 37 35 36 35 35 36 36 34 34 33 33 32
113 112 109 106 105 104 103 96 89 83 82 83 77 72 68 64 62 63 67 61 56 52 45 41 40 35 32 31 31 33 34 36 35 34 36 37 38 37 39 39 40 39 37 37 35 35 36 35 35 36 36 35 34 34
100 100 99 100 98 93 88 83 81 79 76 74 70 67 63 59 60 60 56 52 48 44 38 37 36 31 27 30 31 31 31 32 31 31 33 35 35 35 37 38 38 36 36 36 36 36 36 35 34 35 36 35 35 35
95 94 90 90 88 79 72 67 67 67 66 64 62 60 57 54 55 51 46 46 43 39 37 35 33 27 26 28 29 30 30 29 28 28 30 31 32 33 35 36 34 32 34 34 36 36 35 35 36 35 34 34 34 33
84 85 84 78 71 67 64 64 63 61 60 57 55 55 52 50 48 41 41 41 39 37 35 31 28 27 29 29 28 29 27 25 25 27 28 29 30 31 32 32 32 32 32 33 35 35 35 36 37 35 33 34 34 34
76 75 71 68 66 62 61 60 57 57 55 52 50 49 46 40 36 36 37 37 35 33 30 26 23 27 30 27 26 25 24 23 23 26 27 27 30 30 31 30 29 30 32 33 34 34 35 35 36 35 35 35 35 35
66 64 61 60 57 56 57 52 52 53 48 45 42 41 40 35 33 32 30 29 29 28 26 23 22 27 27 26 24 24 23 23 24 26 26 26 28 28 27 26 27 29 30 31 31 32 33 33 33 34 35 35 35 37
55 52 50 50 51 53 50 48 47 45 45 42 37 35 33 31 28 26 26 22 20 20 19 21 24 26 24 24 24 24 23 22 23 24 24 25 26 26 25 24 25 27 28 28 29 31 32 33 33 33 34 34 35 36
47 48 48 48 49 46 40 38 39 41 40 34 30 28 25 23 22 18 19 17 18 17 15 18 23 24 21 22 22 22 21 21 22 21 22 23 24 23 23 23 24 25 25 26 27 29 30 31 31 32 33 34 35 36
46 46 44 42 39 35 31 33 36 36 31 28 25 22 21 21 15 9 11 16 20 19 17 16 18 19 19 20 20 20 20 19 19 20 21 22 21 21 21 21 22 23 23 25 26 26 27 29 30 32 33 35 36 37

GFSWCAN_250_spd_042.txt.gz
Wind_Speed
62 62 63 64 65 68 70 74 78 80 85 88 89 92 94 96 97 95 94 98 93 94 99 83 59 52 44 35 29 25 24 21 21 22 23 23 23 22 21 21 20 19 18 19 20 19 21 20 20 21 26 32 35 36
64 63 66 67 69 73 73 78 82 83 88 89 92 94 96 98 97 94 97 97 95 103 96 80 56 49 40 34 29 24 26 22 23 23 23 25 24 23 23 22 22 21 21 21 21 20 21 21 19 20 22 29 33 34
66 65 69 71 74 76 79 82 86 88 91 90 95 97 100 101 99 97 100 96 101 93 104 85 58 50 40 34 28 24 24 24 23 25 26 26 25 26 25 25 25 25 25 25 25 22 21 22 24 24 23 24 29 33
69 68 72 76 78 81 82 84 89 92 94 95 98 101 101 103 102 101 107 100 95 96 106 88 62 53 41 34 30 25 23 24 24 26 28 28 25 26 27 26 29 30 30 29 29 26 25 26 24 25 25 25 25 28
75 72 76 79 82 85 87 89 93 96 99 100 103 103 104 103 105 107 110 103 92 106 100 94 72 57 45 35 30 27 25 25 26 28 30 30 29 31 33 31 36 35 34 31 33 29 31 30 29 27 26 26 28 29
79 79 80 81 84 87 91 92 97 100 103 105 106 107 107 109 107 106 109 100 94 108 102 99 74 62 49 39 33 28 25 25 28 30 32 32 33 35 36 37 39 39 38 38 38 35 35 37 36 33 32 30 30 30
81 83 83 85 88 89 92 94 98 102 106 110 111 111 113 112 110 112 104 101 102 107 109 103 94 68 53 43 36 32 28 26 28 31 34 34 36 38 40 40 43 42 39 38 41 39 38 41 39 37 36 37 36 35
85 87 86 87 89 92 93 96 99 104 108 112 115 115 116 117 115 110 101 100 105 113 117 106 105 77 57 45 39 35 33 30 29 31 32 34 36 37 39 39 44 39 36 40 43 45 46 45 39 40 39 39 39 39
88 89 90 91 93 94 94 98 102 104 109 114 118 118 121 120 124 117 105 94 101 110 112 103 104 88 61 51 42 37 35 33 31 32 32 34 36 37 37 35 35 29 38 47 42 42 46 46 44 44 43 41 40 40
91 95 95 96 97 94 96 101 103 105 110 115 118 119 124 124 125 118 115 114 108 111 109 102 98 90 62 56 47 40 38 36 34 34 35 35 35 32 33 31 31 30 40 44 37 40 41 44 45 45 45 45 44 42
95 97 99 99 102 101 100 101 104 109 112 114 119 123 123 120 122 122 120 121 121 122 105 80 92 83 66 55 48 43 40 38 36 37 38 36 32 31 30 32 26 28 31 34 36 39 39 38 39 45 47 47 47 46
94 97 100 101 106 105 105 106 108 110 114 116 120 121 117 120 124 123 127 124 121 121 117 101 83 68 60 57 48 44 43 42 39 38 40 36 34 32 29 32 28 26 26 28 33 36 37 36 42 45 46 48 48 47
102 104 105 106 106 109 111 112 113 114 118 120 119 121 122 121 126 128 133 129 124 117 115 110 98 67 50 50 47 43 43 43 43 40 39 37 35 32 30 30 28 25 26 25 28 34 38 43 46 47 48 49 49 48
107 106 107 108 112 113 117 117 118 118 118 120 121 121 124 125 129 130 130 132 128 123 114 106 98 73 48 42 44 43 43 44 43 42 38 38 34 34 33 30 26 26 25 25 27 32 36 42 47 48 46 49 51 51
107 111 113 112 116 121 119 121 120 117 119 125 124 125 126 129 130 132 133 134 128 126 119 109 95 71 54 45 39 42 43 45 45 42 38 36 32 36 35 33 29 26 26 26 26 30 32 38 43 48 49 48 48 50
112 115 115 117 118 121 122 117 123 125 128 126 129 129 130 131 134 133 136 131 131 121 118 111 89 67 54 53 45 38 41 44 44 43 36 35 34 36 36 35 33 30 27 27 27 28 31 33 38 42 47 49 49 49
113 116 116 120 122 121 126 123 123 124 128 129 133 136 138 133 135 134 132 133 126 127 116 104 85 70 52 47 49 42 39 44 47 45 38 35 38 37 38 37 37 34 31 27 27 28 30 32 34 37 41 43 44 45
120 121 122 122 122 125 125 127 124 130 132 134 134 137 142 142 141 137 135 134 132 118 108 97 79 70 54 47 43 42 44 43 46 48 45 39 40 39 38 39 39 39 33 30 28 28 30 30 32 35 37 39 41 41
121 121 121 126 128 129 130 129 127 130 135 138 141 144 146 142 141 141 137 139 130 119 103 89 78 65 55 45 41 42 43 46 47 48 49 45 43 41 39 40 41 41 37 32 31 30 31 31 30 31 34 35 36 38
127 127 128 130 129 127 128 131 136 138 138 142 145 147 148 144 138 139 139 131 125 113 92 82 73 62 51 45 41 43 44 45 45 46 48 44 43 44 41 40 41 41 40 36 33 33 31 31 31 30 31 31 32 33
129 129 131 134 134 136 134 136 141 144 143 146 147 147 148 145 139 135 134 128 116 101 86 76 67 57 50 44 43 41 42 42 43 44 44 42 41 44 42 40 41 41 41 39 36 35 35 33 32 32 31 30 31 32
135 135 139 139 137 139 142 142 144 148 149 149 150 145 140 136 137 134 122 110 100 91 78 72 62 56 49 44 41 36 39 42 41 38 39 39 38 41 42 41 42 41 40 40 39 36 35 36 35 34 33 32 32 31
142 143 144 143 144 144 144 147 149 149 140 144 141 135 134 135 130 119 107 100 94 79 74 68 64 57 47 45 40 35 36 39 37 35 35 36 37 38 41 40 41 41 39 40 39 39 37 36 36 36 35 34 33 32
146 146 150 147 145 146 147 149 148 145 143 140 135 131 129 124 111 101 89 85 76 69 66 64 56 49 45 43 38 35 37 37 35 35 35 35 35 36 38 39 39 40 39 39 40 40 37 37 38 37 35 35 35 35
150 150 150 149 152 152 147 143 141 134 131 131 127 122 111 102 90 77 77 71 67 62 60 58 50 44 42 39 37 36 37 36 36 35 35 33 32 33 34 35 37 38 39 39 38 38 38 38 38 37 36 36 36 36
148 148 148 148 147 143 137 135 131 123 118 111 104 96 85 75 71 71 64 62 59 56 53 51 46 38 36 35 35 36 37 36 35 34 30 32 31 31 32 33 35 38 39 38 37 37 37 37 38 38 38 38 38 37
151 151 149 143 134 125 116 108 103 99 96 89 79 72 69 67 66 66 58 52 50 47 43 40 37 34 34 33 33 34 34 34 33 30 29 30 29 30 30 31 33 35 36 36 36 36 37 37 36 37 40 39 38 37
125 125 119 109 102 98 98 96 91 84 76 65 62 65 64 64 65 57 49 45 43 41 35 34 34 30 30 29 30 32 32 30 30 29 28 28 29 29 30 30 31 32 33 33 34 34 35 35 36 37 38 37 37 36
99 98 93 91 88 84 85 83 72 64 61 60 59 60 62 59 52 44 40 37 37 37 34 34 32 30 26 25 27 29 28 28 27 28 27 27 28 28 28 28 29 29 29 30 31 31 32 33 34 35 35 35 35 36
84 85 84 83 80 79 77 69 63 60 58 55 56 56 53 49 46 37 34 33 32 31 33 32 29 30 25 24 25 26 26 26 25 25 25 25 25 25 25 25 26 26 27 27 28 29 31 31 31 32 33 33 33 34
75 73 72 71 70 70 68 64 58 54 53 53 51 43 41 43 41 30 25 26 28 31 30 27 27 29 27 25 24 25 26 23 22 22 23 22 22 22 23 23 23 23 24 25 26 27 27 28 29 30 31 32 32 33
65 66 66 65 64 62 58 54 51 49 50 48 44 41 36 32 35 29 18 22 33 36 30 26 24 27 29 27 23 22 20 19 20 21 21 21 21 21 21 21 22 23 23 23 24 25 25 26 28 28 29 29 31 32
56 55 54 54 54 54 51 43 41 43 44 44 42 34 28 27 32 25 23 31 39 37 29 27 27 23 25 27 23 19 16 17 19 19 20 20 19 19 19 19 19 20 21 22 22 23 23 24 26 27 28 29 30 32

GFSWCAN_250_spd_045.txt.gz
Wind_Speed
60 59 58 58 56 52 51 54 57 59 60 64 69 74 76 80 83 86 88 87 90 90 99 98 91 76 54 44 36 31 29 27 25 24 23 24 24 24 24 25 25 27 25 24 24 22 21 22 21 20 23 27 29 32
56 57 57 53 53 51 54 55 58 61 65 68 71 75 79 83 87 88 91 93 94 97 92 94 87 75 61 48 36 31 28 26 26 25 25 25 25 26 25 26 27 28 29 27 27 25 23 22 23 23 20 22 23 26
53 53 52 55 54 55 55 58 62 65 69 72 73 78 80 85 90 90 93 94 95 93 93 93 83 82 64 52 43 32 28 25 26 26 28 27 26 27 28 28 31 31 30 30 28 25 24 23 22 22 22 20 19 22
53 53 53 54 57 58 62 64 69 72 75 77 77 81 83 87 91 92 97 97 95 95 95 88 81 86 74 56 45 37 30 28 26 27 29 29 29 29 29 31 31 28 29 29 31 26 25 27 25 25 23 22 22 20
54 52 49 54 58 64 65 67 75 78 81 81 81 83 86 91 93 94 97 98 98 101 101 99 88 90 89 66 54 43 35 30 28 27 29 31 31 32 32 34 31 33 32 30 34 30 31 31 30 30 28 26 26 26
56 55 50 58 63 66 68 71 75 79 85 87 89 89 90 93 94 96 98 96 99 92 96 99 103 98 91 82 63 50 41 35 31 28 28 30 31 34 36 37 35 38 37 34 35 33 33 36 35 35 32 30 30 28
63 61 56 63 68 70 67 73 80 83 90 90 94 95 94 97 98 96 96 99 101 98 98 95 102 104 91 100 75 52 45 40 35 30 29 30 33 35 38 39 39 41 39 33 35 38 37 40 39 41 38 36 35 34
62 60 62 66 50 61 73 80 84 84 89 94 96 99 101 99 101 100 100 98 98 98 95 94 96 101 105 103 108 59 48 41 37 34 31 32 34 36 38 39 41 41 39 32 31 36 41 44 45 44 41 40 40 38
70 66 64 65 70 70 77 73 77 89 91 97 99 101 102 105 109 106 106 103 100 91 91 94 101 104 101 105 114 74 54 45 40 36 33 33 34 36 39 40 39 40 37 33 31 39 44 49 50 47 44 45 44 43
71 68 66 64 70 72 69 79 87 89 97 99 102 103 106 109 112 113 112 115 111 103 99 83 71 95 94 95 106 92 66 54 43 38 35 33 32 35 38 40 39 39 34 33 39 48 52 45 34 40 45 46 47 45
63 69 73 66 75 74 76 83 89 96 99 98 102 105 108 112 114 118 119 117 114 113 114 90 71 70 65 84 96 96 77 59 50 43 39 35 34 34 36 37 37 37 35 36 40 46 51 46 41 42 43 45 47 48
73 78 81 83 80 79 83 89 92 96 96 101 105 106 109 109 115 119 120 122 116 117 108 107 106 97 87 66 89 98 78 59 51 48 44 38 37 35 35 36 35 36 35 33 33 39 38 41 40 40 41 44 47 47
90 88 88 84 82 82 84 92 98 94 103 106 107 107 109 112 115 119 124 120 117 118 119 122 117 104 113 105 92 69 72 57 51 51 47 41 39 36 34 35 35 37 34 34 31 34 37 38 38 40 41 39 42 46
94 90 88 85 87 90 94 95 97 102 105 105 107 109 111 113 118 120 122 122 120 119 122 127 128 119 117 112 103 86 71 54 45 49 50 44 40 38 34 33 33 35 34 34 32 32 33 34 35 39 41 42 45 48
91 91 92 91 93 95 97 97 102 108 108 107 103 108 115 117 120 122 123 121 123 122 125 129 128 127 125 113 106 81 88 69 53 45 46 47 43 38 37 37 35 35 37 34 33 32 33 33 33 36 41 44 48 49
93 95 97 98 96 97 103 105 105 105 107 109 109 112 116 119 121 123 123 125 125 125 128 128 132 129 123 111 105 105 78 67 55 52 53 46 46 43 39 40 40 38 38 36 33 33 34 33 32 33 37 41 46 50
95 98 100 99 96 98 103 103 107 110 111 113 113 116 116 119 123 122 126 127 127 129 129 132 127 130 114 126 97 87 69 61 52 44 48 58 48 46 43 43 42 41 41 39 36 34 34 34 33 32 34 36 38 43
102 104 104 102 101 102 106 110 110 113 114 117 116 115 118 119 122 124 124 129 134 132 134 131 127 131 120 113 107 77 65 56 47 47 51 57 58 45 47 44 44 42 42 41 39 36 35 37 36 33 33 34 36 38
105 105 107 108 105 107 110 111 114 113 118 118 117 118 118 123 126 127 132 137 136 135 138 125 122 130 116 99 80 77 61 48 44 47 56 58 50 47 48 44 46 42 43 43 41 38 36 38 37 34 32 32 33 36
105 110 112 114 115 116 116 112 115 117 119 123 121 120 123 127 131 131 137 139 142 142 135 120 119 124 104 90 72 65 56 49 45 45 55 57 47 41 43 44 44 43 42 43 42 39 37 40 39 37 35 32 32 33
114 116 118 119 115 113 117 120 118 119 122 123 125 124 127 134 136 138 138 143 143 147 119 112 121 112 99 81 73 62 58 49 44 43 46 52 46 40 41 42 41 42 41 41 43 38 37 40 41 40 38 35 34 33
116 117 118 121 123 124 124 120 122 123 124 126 127 127 133 136 138 139 143 146 144 124 108 120 116 99 81 75 68 61 54 47 42 42 42 44 44 38 38 39 40 39 39 38 42 40 37 40 42 40 39 37 35 34
120 120 121 121 120 115 116 122 124 126 128 130 133 133 135 137 141 140 144 143 133 109 119 111 103 89 78 74 67 60 52 45 42 40 39 38 39 35 34 36 38 39 37 36 40 41 38 39 41 42 40 39 37 34
124 125 125 123 119 116 120 126 130 133 136 135 136 136 139 141 141 141 142 128 116 117 107 96 84 80 78 71 61 57 50 45 43 40 36 34 33 31 30 33 36 36 35 34 37 40 38 38 41 42 41 40 39 37
129 124 119 118 120 126 132 133 134 136 137 140 139 140 141 140 130 132 129 110 121 105 89 81 77 75 67 58 55 52 46 43 42 38 31 32 28 26 27 28 31 33 34 33 36 38 38 38 40 41 41 40 39 38
126 127 125 129 132 134 135 137 138 137 138 134 132 137 134 141 136 122 112 108 88 78 75 73 71 63 59 55 50 48 43 41 42 38 31 30 26 24 25 26 28 30 33 32 35 37 37 38 39 41 41 40 40 40
131 132 135 139 142 138 136 134 133 134 134 128 129 132 132 126 114 104 88 78 73 70 68 64 58 54 54 51 45 44 41 40 40 38 31 28 27 24 24 25 25 27 30 30 32 34 34 36 37 39 40 41 41 40
138 139 137 133 131 130 132 132 134 131 132 123 120 113 108 101 92 79 74 71 67 59 51 51 54 54 50 46 42 40 39 40 39 35 30 27 28 25 23 23 24 26 27 29 29 29 31 32 34 36 38 39 39 39
139 137 130 132 133 132 140 137 124 110 100 97 96 93 86 79 71 69 67 57 48 42 41 47 59 50 44 43 39 38 37 37 37 33 29 25 26 22 20 22 23 24 24 25 26 26 27 29 31 33 34 35 36 38
125 124 120 112 105 101 95 92 90 88 87 86 78 70 68 66 64 57 52 45 34 33 39 52 55 47 42 43 40 36 37 34 34 32 26 24 24 21 19 22 23 23 22 23 24 24 25 27 29 30 32 33 34 36
91 91 91 88 88 86 83 80 79 77 72 65 63 62 59 52 49 48 45 32 27 32 45 54 49 40 41 39 38 37 38 31 30 29 26 25 23 20 19 22 22 22 21 21 22 23 25 26 27 28 30 31 32 33
80 80 80 78 77 75 72 68 63 60 57 56 56 51 46 43 42 42 38 33 35 42 43 46 43 37 38 35 34 33 34 27 28 29 27 23 21 19 18 20 20 20 21 21 21 22 23 24 25 26 27 28 29 30
72 69 65 62 61 60 57 54 51 50 49 47 48 48 45 36 33 33 34 40 42 36 37 36 32 28 31 30 30 29 27 23 24 27 26 22 19 17 17 17 18 18 18 18 18 18 19 21 22 23 25 26 27 28

GFSWCAN_250_spd_048.txt.gz
Wind_Speed
48 51 49 44 44 44 44 45 45 46 45 44 47 52 55 60 62 65 70 72 77 79 83 89 94 87 95 79 59 53 49 35 29 24 22 18 20 24 25 24 24 26 26 25 27 27 24 27 28 30 30 30 28 30
41 46 46 44 44 43 48 41 43 41 44 45 48 54 58 64 66 66 73 73 78 80 83 87 90 85 86 71 57 48 47 39 32 27 24 22 21 22 25 27 26 26 26 27 27 26 24 26 26 25 28 29 30 29
41 44 43 43 40 39 41 41 45 45 46 45 52 56 64 67 71 73 74 74 79 83 85 87 89 80 81 72 68 57 47 37 33 32 27 23 24 24 26 26 26 24 24 25 27 26 28 30 26 27 28 28 30 28
40 41 42 40 37 38 43 43 50 47 47 52 52 58 64 71 76 76 78 78 84 83 88 92 87 81 87 77 69 74 51 44 36 30 28 24 25 27 28 26 25 26 29 28 29 26 30 31 32 33 32 29 28 30
43 43 44 41 40 43 44 48 47 45 50 55 53 50 63 76 80 80 80 83 87 90 95 95 90 91 90 85 80 78 58 46 39 36 31 26 25 28 28 28 26 28 27 27 29 28 31 33 32 32 33 32 32 30
48 48 47 44 41 47 47 48 43 47 54 54 54 61 70 77 77 81 84 86 89 91 94 97 96 99 88 83 94 84 73 71 43 38 34 31 27 29 31 28 26 32 32 32 31 31 32 35 34 33 36 35 33 33
52 52 47 44 49 50 47 45 47 51 56 47 57 66 73 78 80 85 84 89 92 94 96 95 99 98 95 92 101 102 84 78 48 43 36 33 31 31 33 32 31 33 36 33 33 34 36 34 38 38 37 39 36 36
56 54 51 50 50 49 50 52 49 52 55 58 67 75 78 83 87 88 89 92 95 97 96 98 99 102 99 93 98 99 90 78 75 51 40 35 32 30 32 33 33 34 37 37 37 36 38 40 40 43 40 43 42 41
58 56 56 53 51 51 51 55 53 49 55 67 62 69 77 85 91 91 94 95 97 98 98 101 98 102 96 103 96 98 89 84 80 87 50 39 32 31 31 33 34 35 37 37 38 35 37 41 43 43 45 47 47 48
60 58 53 57 58 50 51 53 51 55 61 62 65 78 83 88 94 95 97 101 103 104 106 105 102 90 83 84 91 79 91 95 75 84 59 48 36 34 34 33 35 37 38 39 39 36 37 40 41 52 53 54 51 51
57 57 54 52 44 49 58 61 50 62 63 66 74 82 85 92 96 97 101 103 105 107 109 110 112 101 97 94 78 67 84 79 68 81 67 51 45 38 35 35 36 36 37 39 40 38 35 39 46 54 49 44 43 41
55 55 55 42 51 56 60 63 60 62 67 76 77 87 91 94 94 99 103 105 106 108 112 113 115 115 110 108 97 71 82 82 69 74 78 50 45 44 43 39 37 37 38 38 40 39 36 37 44 49 46 43 44 43
59 55 51 56 57 64 49 57 68 70 72 79 84 89 93 95 95 100 101 104 108 109 112 114 118 117 116 111 111 96 97 82 75 65 80 56 48 42 43 45 42 39 39 39 37 38 36 37 38 42 42 42 42 41
57 58 64 60 51 54 65 68 71 71 73 76 84 91 97 99 100 98 102 109 109 112 114 118 118 122 113 117 112 114 111 97 94 75 101 60 49 44 44 45 46 44 42 42 41 39 37 36 38 36 42 40 42 43
67 65 56 60 65 64 69 74 79 80 83 90 96 97 95 93 98 100 106 109 110 112 117 121 121 128 121 115 115 114 119 116 95 83 90 64 54 52 53 52 47 46 47 45 44 43 40 37 39 36 36 38 39 41
71 66 67 69 72 73 77 81 84 84 87 96 97 93 96 100 103 105 110 113 114 119 120 121 121 124 118 117 119 108 111 108 115 95 76 61 50 51 53 61 63 52 46 47 46 44 42 41 39 39 36 36 38 40
71 71 70 75 79 80 86 84 85 88 93 97 94 94 99 103 104 110 112 114 118 120 118 122 121 117 117 128 119 116 105 105 114 88 71 63 56 51 54 58 61 59 50 44 45 44 41 42 40 39 38 37 38 38
85 79 74 79 82 86 90 91 92 96 99 101 102 104 102 100 107 112 116 115 120 122 123 119 115 119 123 125 124 111 99 97 95 80 72 67 59 53 54 57 58 56 50 48 43 40 40 40 41 40 40 38 38 38
89 87 86 90 90 90 93 95 98 102 103 103 106 106 103 106 112 113 116 118 121 125 123 119 117 119 122 117 123 111 93 86 79 74 70 67 61 53 53 56 55 49 44 43 39 35 37 38 40 40 42 40 39 38
93 94 96 96 96 95 99 101 101 99 104 108 110 110 110 113 113 116 118 120 124 128 123 120 120 115 114 129 108 97 102 80 69 65 68 67 62 53 50 53 53 45 40 39 36 33 34 37 38 38 41 42 40 40
100 95 97 101 103 106 105 102 101 106 109 112 117 114 112 114 117 121 121 126 127 126 118 118 119 127 128 112 102 94 81 76 66 65 61 58 58 51 49 50 50 42 37 36 33 32 34 36 35 37 41 42 41 39
100 101 104 107 107 106 108 108 108 111 113 113 113 113 115 118 121 122 127 127 122 116 121 118 122 127 117 108 104 88 78 72 65 63 59 55 54 49 46 45 43 37 33 32 32 32 33 35 35 36 40 42 41 39
102 106 109 110 108 109 107 107 110 113 117 118 120 118 117 121 122 123 121 121 115 119 119 120 127 115 103 113 91 83 76 71 65 60 54 53 50 45 42 38 38 35 31 31 31 31 32 33 34 34 37 41 41 39
109 108 108 109 108 104 101 105 111 118 120 118 117 116 118 117 118 118 123 119 122 120 124 126 116 116 110 88 81 79 72 67 63 59 53 50 46 40 37 36 36 36 32 29 30 30 30 31 34 34 34 40 43 41
110 108 108 106 107 110 112 119 123 120 116 115 112 117 119 116 116 122 123 110 117 129 119 116 105 98 81 75 75 74 68 59 61 60 51 43 44 38 34 35 34 34 33 30 29 30 28 30 33 34 34 38 42 43
110 109 109 109 111 114 114 113 113 114 111 112 116 119 117 120 125 125 119 120 121 121 99 101 88 74 72 73 71 69 64 58 57 57 47 41 41 37 33 32 31 31 33 29 29 30 29 29 31 34 35 36 40 44
111 112 115 120 121 117 114 112 110 113 115 118 121 123 124 124 128 124 121 118 104 92 80 74 68 67 69 69 68 65 58 54 54 48 42 39 40 36 29 29 28 28 30 28 27 27 27 28 29 31 34 36 38 42
114 118 118 118 115 112 111 113 116 120 125 130 130 131 132 130 131 120 111 105 88 79 72 68 66 63 65 64 60 61 56 49 47 42 37 35 35 32 26 26 26 27 27 26 25 24 24 25 26 28 30 32 35 38
119 118 113 112 114 119 121 120 117 117 119 124 124 126 123 110 109 108 91 81 75 63 61 58 61 63 62 58 53 48 45 43 40 35 33 32 32 28 24 25 25 25 24 24 23 22 23 24 24 26 28 30 33 35
121 123 124 125 126 125 123 122 120 120 124 119 116 115 118 109 98 88 82 74 63 55 52 52 55 56 58 52 43 37 35 38 34 30 29 29 28 25 21 24 25 24 22 21 21 21 21 22 23 25 27 28 30 33
130 130 129 126 123 121 119 114 110 116 124 102 81 83 83 80 79 73 69 60 52 47 45 49 51 51 46 42 38 40 34 32 28 26 25 26 25 21 20 23 24 22 20 19 18 19 20 21 21 23 24 25 27 28
125 126 124 121 115 105 100 95 88 80 76 73 73 72 69 65 63 63 59 50 40 41 47 46 39 37 37 33 35 37 32 29 26 24 21 23 21 17 18 20 22 19 17 15 15 15 17 17 17 18 19 21 22 23
102 97 92 87 84 82 78 73 71 71 69 65 61 59 59 59 57 54 40 30 37 42 43 38 32 30 30 31 33 30 27 26 26 24 20 19 15 13 15 18 18 16 15 14 13 13 14 14 14 15 17 18 19 20